| time (UTC) | temp F | wind direction | speed MPH | gust MPH | rain 1hr in | rain 24hr in | rain mn in | humidity % | barometer mb |
| 20260902082712 | 68 | 52 | 1.0 | 3.0 | 0.00 | 0.00 | 0.00 | 78 | 1023.5 |
| 20260902082536 | 68 | 52 | 1.0 | 3.0 | 0.00 | 0.00 | 0.00 | 79 | 1023.3 |
| 20260902082413 | 68 | 56 | 1.0 | 4.0 | 0.00 | 0.00 | 0.00 | 79 | 1023.3 |
| 20260902082032 | 68 | 57 | 0.0 | 4.0 | 0.00 | 0.00 | 0.00 | 80 | 1023.3 |
| 20260902081606 | 67 | 57 | 1.0 | 4.0 | 0.00 | 0.00 | 0.00 | 80 | 1023.2 |
| 20260902081537 | 67 | 57 | 1.0 | 4.0 | 0.00 | 0.00 | 0.00 | 81 | 1023.3 |
| 20260902081356 | 67 | 57 | 2.0 | 4.0 | 0.00 | 0.00 | 0.00 | 81 | 1023.3 |
| 20260902081217 | 67 | 55 | 2.0 | 4.0 | 0.00 | 0.00 | 0.00 | 82 | 1023.3 |
| 20260902081109 | 67 | 55 | 1.0 | 4.0 | 0.00 | 0.00 | 0.00 | 83 | 1023.3 |
| 20260902080922 | 67 | 55 | 2.0 | 4.0 | 0.00 | 0.00 | 0.00 | 83 | 1023.3 |
| 20260902080835 | 67 | 55 | 1.0 | 4.0 | 0.00 | 0.00 | 0.00 | 83 | 1023.3 |
| 20260902080421 | 66 | 55 | 1.0 | 4.0 | 0.00 | 0.00 | 0.00 | 84 | 1023.3 |
| 20260902080233 | 66 | 55 | 1.0 | 4.0 | 0.00 | 0.00 | 0.00 | 84 | 1023.3 |
| 20260902080225 | 66 | 55 | 1.0 | 4.0 | 0.00 | 0.00 | 0.00 | 84 | 1023.3 |
| 20260902080104 | 66 | 108 | 2.0 | 4.0 | 0.00 | 0.00 | 0.00 | 84 | 1023.2 |
| 20260902075600 | 65 | 77 | 0.0 | 4.0 | 0.00 | 0.00 | 0.00 | 86 | 1023.2 |
| 20260902075522 | 65 | 64 | 1.0 | 4.0 | 0.00 | 0.00 | 0.00 | 86 | 1023.1 |
| 20260902075408 | 65 | 64 | 2.0 | 4.0 | 0.00 | 0.00 | 0.00 | 87 | 1023.1 |
| 20260902075214 | 65 | 54 | 0.0 | 4.0 | 0.00 | 0.00 | 0.00 | 89 | 1023.2 |
| 20260902075150 | 65 | 51 | 0.0 | 3.0 | 0.00 | 0.00 | 0.00 | 89 | 1023.2 |
| 20260902074738 | 65 | 292 | 0.0 | 2.0 | 0.00 | 0.00 | 0.00 | 90 | 1023.2 |
| 20260902074043 | 64 | 292 | 0.0 | 2.0 | 0.00 | 0.00 | 0.00 | 91 | 1023.1 |
| 20260902073657 | 64 | 292 | 1.0 | 2.0 | 0.00 | 0.00 | 0.00 | 92 | 1023.2 |
| 20260902073556 | 64 | 292 | 1.0 | 2.0 | 0.00 | 0.00 | 0.00 | 92 | 1023.2 |
| 20260902073332 | 64 | 292 | 1.0 | 3.0 | 0.00 | 0.00 | 0.00 | 93 | 1023.3 |
| 20260902073235 | 63 | 292 | 1.0 | 3.0 | 0.00 | 0.00 | 0.00 | 93 | 1023.3 |
| 20260902073209 | 63 | 292 | 0.0 | 3.0 | 0.00 | 0.00 | 0.00 | 93 | 1023.2 |
| 20260902073036 | 63 | 292 | 1.0 | 3.0 | 0.00 | 0.00 | 0.00 | 94 | 1023.2 |
| 20260902072915 | 63 | 292 | 0.0 | 3.0 | 0.00 | 0.00 | 0.00 | 94 | 1023.3 |
| 20260902071814 | 62 | 292 | 1.0 | 2.0 | 0.00 | 0.00 | 0.00 | 95 | 1023.3 |
| 20260902071759 | 62 | 292 | 0.0 | 2.0 | 0.00 | 0.00 | 0.00 | 95 | 1023.1 |
| 20260902071635 | 62 | 292 | 1.0 | 2.0 | 0.00 | 0.00 | 0.00 | 95 | 1023.2 |
| 20260902071441 | 62 | 292 | 0.0 | 2.0 | 0.00 | 0.00 | 0.00 | 95 | 1023.3 |
| 20260902071412 | 62 | 292 | 0.0 | 2.0 | 0.00 | 0.00 | 0.00 | 96 | 1023.3 |
| 20260902071317 | 62 | 292 | 0.0 | 0.0 | 0.00 | 0.00 | 0.00 | 96 | 1023.2 |
| 20260902071126 | 62 | 292 | 0.0 | 0.0 | 0.00 | 0.00 | 0.00 | 96 | 1023.2 |
| 20260902071035 | 62 | 292 | 0.0 | 0.0 | 0.00 | 0.00 | 0.00 | 96 | 1023.2 |
| 20260902071010 | 62 | 292 | 0.0 | 0.0 | 0.00 | 0.00 | 0.00 | 96 | 1023.2 |
| 20260902070845 | 62 | 292 | 0.0 | 0.0 | 0.00 | 0.00 | 0.00 | 97 | 1023.1 |
| 20260902070648 | 61 | 292 | 0.0 | 0.0 | 0.00 | 0.00 | 0.00 | 97 | 1023.1 |
| 20260902070322 | 61 | 292 | 0.0 | 0.0 | 0.00 | 0.00 | 0.00 | 97 | 1023.1 |
| 20260902070131 | 61 | 292 | 0.0 | 0.0 | 0.00 | 0.00 | 0.00 | 97 | 1023.1 |
| 20260902070109 | 61 | 292 | 0.0 | 0.0 | 0.00 | 0.00 | 0.00 | 97 | 1023.1 |
| 20260902070038 | 61 | 292 | 0.0 | 0.0 | 0.00 | 0.00 | 0.00 | 97 | 1023.0 |
| 20260902065836 | 61 | 292 | 0.0 | 0.0 | 0.00 | 0.00 | 0.00 | 97 | 1023.0 |
| 20260902065531 | 60 | 292 | 0.0 | 0.0 | 0.00 | 0.00 | 0.00 | 97 | 1023.1 |
| 20260902065035 | 60 | 292 | 0.0 | 0.0 | 0.00 | 0.00 | 0.00 | 97 | 1023.0 |
| 20260902065006 | 60 | 292 | 0.0 | 0.0 | 0.00 | 0.00 | 0.00 | 97 | 1023.0 |
| 20260902064936 | 60 | 292 | 0.0 | 0.0 | 0.00 | 0.00 | 0.00 | 97 | 1023.1 |
| 20260902064712 | 60 | 292 | 0.0 | 0.0 | 0.00 | 0.00 | 0.00 | 97 | 1023.0 |
| 20260902064602 | 59 | 292 | 0.0 | 0.0 | 0.00 | 0.00 | 0.00 | 97 | 1023.0 |
| 20260902064512 | 59 | 292 | 0.0 | 0.0 | 0.00 | 0.00 | 0.00 | 97 | 1023.1 |
| 20260902064128 | 59 | 292 | 0.0 | 0.0 | 0.00 | 0.00 | 0.00 | 97 | 1023.1 |
| 20260902064102 | 59 | 292 | 0.0 | 0.0 | 0.00 | 0.00 | 0.00 | 97 | 1023.0 |
| 20260902063940 | 59 | 292 | 0.0 | 0.0 | 0.00 | 0.00 | 0.00 | 97 | 1023.0 |
| 20260902063832 | 58 | 292 | 0.0 | 0.0 | 0.00 | 0.00 | 0.00 | 97 | 1022.9 |
| 20260902063503 | 58 | 292 | 0.0 | 0.0 | 0.00 | 0.00 | 0.00 | 96 | 1023.0 |
| 20260902063308 | 58 | 292 | 0.0 | 0.0 | 0.00 | 0.00 | 0.00 | 96 | 1022.9 |
| 20260902063248 | 58 | 292 | 0.0 | 0.0 | 0.00 | 0.00 | 0.00 | 96 | 1022.9 |
| 20260902062340 | 67 | 273 | 1.0 | 3.0 | 0.00 | 0.00 | 0.00 | 82 | 1022.0 |
| 20260902062245 | 58 | 292 | 0.0 | 0.0 | 0.00 | 0.00 | 0.00 | 96 | 1022.9 |
| 20260902062221 | 58 | 292 | 0.0 | 0.0 | 0.00 | 0.00 | 0.00 | 96 | 1023.0 |
| 20260902062112 | 58 | 292 | 0.0 | 0.0 | 0.00 | 0.00 | 0.00 | 96 | 1022.9 |
| 20260902061944 | 58 | 292 | 0.0 | 0.0 | 0.00 | 0.00 | 0.00 | 96 | 1022.9 |
| 20260902061930 | 58 | 292 | 0.0 | 0.0 | 0.00 | 0.00 | 0.00 | 96 | 1022.9 |
| 20260902061840 | 58 | 292 | 0.0 | 0.0 | 0.00 | 0.00 | 0.00 | 96 | 1022.9 |
| 20260902061659 | 58 | 292 | 0.0 | 0.0 | 0.00 | 0.00 | 0.00 | 96 | 1022.9 |
| 20260902061628 | 58 | 292 | 0.0 | 0.0 | 0.00 | 0.00 | 0.00 | 96 | 1022.9 |
| 20260902060911 | 58 | 292 | 0.0 | 0.0 | 0.00 | 0.00 | 0.00 | 96 | 1022.9 |
| 20260902060839 | 58 | 292 | 0.0 | 0.0 | 0.00 | 0.00 | 0.00 | 96 | 1022.9 |
| 20260902060655 | 58 | 292 | 0.0 | 0.0 | 0.00 | 0.00 | 0.00 | 96 | 1022.8 |
| 20260902060620 | 58 | 292 | 0.0 | 0.0 | 0.00 | 0.00 | 0.00 | 96 | 1022.9 |
| 20260902060309 | 58 | 292 | 0.0 | 0.0 | 0.00 | 0.00 | 0.00 | 96 | 1022.8 |
| 20260902060135 | 57 | 292 | 0.0 | 0.0 | 0.00 | 0.00 | 0.00 | 96 | 1022.8 |
| 20260902060121 | 57 | 292 | 0.0 | 0.0 | 0.00 | 0.00 | 0.00 | 96 | 1022.8 |
| 20260902060048 | 57 | 292 | 0.0 | 0.0 | 0.00 | 0.00 | 0.00 | 96 | 1022.8 |
| 20260902060006 | 57 | 292 | 0.0 | 0.0 | 0.00 | 0.00 | 0.00 | 96 | 1022.8 |
| 20260902055400 | 57 | 292 | 0.0 | 0.0 | 0.00 | 0.00 | 0.00 | 96 | 1022.8 |
| 20260902055217 | 57 | 292 | 0.0 | 0.0 | 0.00 | 0.00 | 0.00 | 95 | 1022.7 |
| 20260902054909 | 57 | 292 | 0.0 | 0.0 | 0.00 | 0.00 | 0.00 | 96 | 1022.7 |
| 20260902054426 | 57 | 292 | 0.0 | 0.0 | 0.00 | 0.00 | 0.00 | 95 | 1022.6 |
| 20260902054034 | 58 | 292 | 0.0 | 0.0 | 0.00 | 0.00 | 0.00 | 95 | 1022.6 |
| 20260902053859 | 67 | 248 | 0.0 | 1.0 | 0.00 | 0.00 | 0.00 | 81 | 1021.9 |
| 20260902053817 | 57 | 292 | 0.0 | 0.0 | 0.00 | 0.00 | 0.00 | 95 | 1022.7 |
| 20260902053747 | 58 | 292 | 0.0 | 0.0 | 0.00 | 0.00 | 0.00 | 95 | 1022.6 |
| 20260902053707 | 57 | 292 | 0.0 | 0.0 | 0.00 | 0.00 | 0.00 | 95 | 1022.6 |
| 20260902053459 | 58 | 292 | 0.0 | 0.0 | 0.00 | 0.00 | 0.00 | 95 | 1022.6 |
| 20260902053428 | 58 | 292 | 0.0 | 0.0 | 0.00 | 0.00 | 0.00 | 95 | 1022.7 |
| 20260902053154 | 67 | 248 | 0.0 | 3.0 | 0.00 | 0.00 | 0.00 | 81 | 1021.9 |
| 20260902053031 | 57 | 292 | 0.0 | 0.0 | 0.00 | 0.00 | 0.00 | 95 | 1022.6 |
| 20260902052812 | 58 | 292 | 0.0 | 0.0 | 0.00 | 0.00 | 0.00 | 95 | 1022.6 |
| 20260902052737 | 57 | 292 | 0.0 | 0.0 | 0.00 | 0.00 | 0.00 | 95 | 1022.6 |
| 20260902052718 | 68 | 240 | 2.0 | 3.0 | 0.00 | 0.00 | 0.00 | 80 | 1021.9 |
| 20260902052714 | 68 | 236 | 2.0 | 3.0 | 0.00 | 0.00 | 0.00 | 80 | 1021.9 |
| 20260902052617 | 58 | 292 | 0.0 | 0.0 | 0.00 | 0.00 | 0.00 | 95 | 1022.6 |
| 20260902052451 | 58 | 292 | 0.0 | 0.0 | 0.00 | 0.00 | 0.00 | 95 | 1022.6 |
| 20260902052320 | 68 | 271 | 1.0 | 4.0 | 0.00 | 0.00 | 0.00 | 80 | 1021.9 |
| 20260902052207 | 58 | 292 | 0.0 | 0.0 | 0.00 | 0.00 | 0.00 | 95 | 1022.5 |
| 20260902052049 | 58 | 292 | 0.0 | 0.0 | 0.00 | 0.00 | 0.00 | 95 | 1022.5 |
| 20260902051911 | 58 | 292 | 0.0 | 0.0 | 0.00 | 0.00 | 0.00 | 95 | 1022.5 |
| 20260902051851 | 58 | 292 | 0.0 | 0.0 | 0.00 | 0.00 | 0.00 | 95 | 1022.6 |
| 20260902051804 | 58 | 292 | 0.0 | 0.0 | 0.00 | 0.00 | 0.00 | 95 | 1022.5 |
| 20260902051704 | 58 | 292 | 0.0 | 0.0 | 0.00 | 0.00 | 0.00 | 95 | 1022.5 |
| 20260902051527 | 58 | 292 | 0.0 | 0.0 | 0.00 | 0.00 | 0.00 | 95 | 1022.5 |
| 20260902051513 | 58 | 292 | 0.0 | 0.0 | 0.00 | 0.00 | 0.00 | 95 | 1022.4 |
| 20260902051001 | 58 | 292 | 0.0 | 0.0 | 0.00 | 0.00 | 0.00 | 95 | 1022.4 |
| 20260902050708 | 68 | 286 | 2.0 | 4.0 | 0.00 | 0.00 | 0.00 | 78 | 1022.0 |
| 20260902050700 | 69 | 275 | 2.0 | 4.0 | 0.00 | 0.00 | 0.00 | 78 | 1021.8 |
| 20260902050633 | 69 | 255 | 2.0 | 4.0 | 0.00 | 0.00 | 0.00 | 78 | 1021.8 |
| 20260902050612 | 58 | 292 | 0.0 | 0.0 | 0.00 | 0.00 | 0.00 | 95 | 1022.3 |
| 20260902050557 | 69 | 280 | 2.0 | 3.0 | 0.00 | 0.00 | 0.00 | 77 | 1021.8 |
| 20260902050553 | 69 | 257 | 2.0 | 3.0 | 0.00 | 0.00 | 0.00 | 77 | 1021.8 |
| 20260902050442 | 58 | 292 | 0.0 | 0.0 | 0.00 | 0.00 | 0.00 | 95 | 1022.4 |
| 20260902050345 | 69 | 247 | 0.0 | 2.0 | 0.00 | 0.00 | 0.00 | 76 | 1021.7 |
| 20260902050244 | 58 | 292 | 0.0 | 0.0 | 0.00 | 0.00 | 0.00 | 95 | 1022.3 |
| 20260902050215 | 58 | 292 | 0.0 | 1.0 | 0.00 | 0.00 | 0.00 | 95 | 1022.4 |
| 20260902050156 | 69 | 257 | 1.0 | 3.0 | 0.00 | 0.00 | 0.00 | 75 | 1021.5 |
| 20260902050031 | 58 | 292 | 0.0 | 1.0 | 0.00 | 0.00 | 0.00 | 95 | 1022.4 |
| 20260902045810 | 58 | 292 | 0.0 | 1.0 | 0.00 | 0.00 | 0.00 | 95 | 1022.3 |
| 20260902045748 | 58 | 292 | 0.0 | 1.0 | 0.00 | 0.00 | 0.00 | 95 | 1022.4 |
| 20260902045642 | 58 | 292 | 0.0 | 1.0 | 0.00 | 0.00 | 0.00 | 95 | 1022.3 |
| 20260902045538 | 58 | 292 | 0.0 | 1.0 | 0.00 | 0.00 | 0.00 | 95 | 1022.3 |
| 20260902045421 | 58 | 292 | 0.0 | 1.0 | 0.00 | 0.00 | 0.00 | 95 | 1022.3 |
| 20260902045402 | 58 | 292 | 0.0 | 0.0 | 0.00 | 0.00 | 0.00 | 95 | 1022.3 |
| 20260902045246 | 58 | 292 | 0.0 | 1.0 | 0.00 | 0.00 | 0.00 | 95 | 1022.2 |
| 20260902045119 | 58 | 292 | 0.0 | 2.0 | 0.00 | 0.00 | 0.00 | 95 | 1022.3 |
| 20260902045104 | 58 | 292 | 0.0 | 2.0 | 0.00 | 0.00 | 0.00 | 95 | 1022.2 |
| 20260902044733 | 58 | 292 | 0.0 | 2.0 | 0.00 | 0.00 | 0.00 | 95 | 1022.3 |
| 20260902044530 | 58 | 292 | 0.0 | 2.0 | 0.00 | 0.00 | 0.00 | 95 | 1022.2 |
| 20260902044433 | 58 | 292 | 1.0 | 2.0 | 0.00 | 0.00 | 0.00 | 94 | 1022.2 |
| 20260902043909 | 58 | 279 | 0.0 | 0.0 | 0.00 | 0.00 | 0.00 | 94 | 1022.2 |
| 20260902043827 | 58 | 279 | 0.0 | 0.0 | 0.00 | 0.00 | 0.00 | 94 | 1022.2 |
| 20260902043721 | 58 | 279 | 0.0 | 0.0 | 0.00 | 0.00 | 0.00 | 94 | 1022.2 |
| 20260902043549 | 58 | 279 | 0.0 | 0.0 | 0.00 | 0.00 | 0.00 | 94 | 1022.2 |
| 20260902043236 | 58 | 279 | 0.0 | 0.0 | 0.00 | 0.00 | 0.00 | 94 | 1022.2 |
| 20260902043040 | 58 | 279 | 0.0 | 0.0 | 0.00 | 0.00 | 0.00 | 95 | 1022.3 |
| 20260902042752 | 58 | 279 | 0.0 | 0.0 | 0.00 | 0.00 | 0.00 | 94 | 1022.2 |
| 20260902042310 | 58 | 279 | 0.0 | 0.0 | 0.00 | 0.00 | 0.00 | 94 | 1022.2 |
| 20260902041804 | 59 | 279 | 0.0 | 0.0 | 0.00 | 0.00 | 0.00 | 94 | 1022.2 |
| 20260902041737 | 59 | 279 | 0.0 | 0.0 | 0.00 | 0.00 | 0.00 | 94 | 1022.2 |
| 20260902041613 | 59 | 279 | 0.0 | 0.0 | 0.00 | 0.00 | 0.00 | 94 | 1022.2 |
| 20260902041429 | 59 | 279 | 0.0 | 0.0 | 0.00 | 0.00 | 0.00 | 94 | 1022.2 |
| 20260902041237 | 59 | 279 | 0.0 | 0.0 | 0.00 | 0.00 | 0.00 | 94 | 1022.3 |
| 20260902041214 | 59 | 279 | 0.0 | 0.0 | 0.00 | 0.00 | 0.00 | 94 | 1022.2 |
| 20260902041033 | 59 | 279 | 0.0 | 0.0 | 0.00 | 0.00 | 0.00 | 94 | 1022.3 |
| 20260902040808 | 59 | 279 | 0.0 | 0.0 | 0.00 | 0.00 | 0.00 | 94 | 1022.2 |
| 20260902040739 | 59 | 279 | 0.0 | 0.0 | 0.00 | 0.00 | 0.00 | 94 | 1022.3 |
| 20260902040636 | 59 | 279 | 0.0 | 0.0 | 0.00 | 0.00 | 0.00 | 94 | 1022.2 |
| 20260902040519 | 59 | 279 | 0.0 | 0.0 | 0.00 | 0.00 | 0.00 | 94 | 1022.2 |
| 20260902040315 | 59 | 279 | 0.0 | 0.0 | 0.00 | 0.00 | 0.00 | 94 | 1022.2 |
| 20260902035806 | 59 | 279 | 0.0 | 0.0 | 0.00 | 0.00 | 0.00 | 94 | 1022.3 |
| 20260902035741 | 59 | 279 | 0.0 | 0.0 | 0.00 | 0.00 | 0.00 | 94 | 1022.3 |
| 20260902035724 | 70 | 270 | 0.0 | 2.0 | 0.00 | 0.00 | 0.00 | 75 | 1021.5 |
| 20260902035700 | 70 | 270 | 0.0 | 4.0 | 0.00 | 0.00 | 0.00 | 75 | 1021.5 |
| 20260902035612 | 59 | 279 | 0.0 | 0.0 | 0.00 | 0.00 | 0.00 | 94 | 1022.3 |
| 20260902035553 | 70 | 263 | 0.0 | 4.0 | 0.00 | 0.00 | 0.00 | 74 | 1021.5 |
| 20260902035430 | 59 | 279 | 0.0 | 0.0 | 0.00 | 0.00 | 0.00 | 94 | 1022.3 |
| 20260902035246 | 59 | 279 | 0.0 | 0.0 | 0.00 | 0.00 | 0.00 | 94 | 1022.3 |
| 20260902035212 | 59 | 279 | 0.0 | 0.0 | 0.00 | 0.00 | 0.00 | 94 | 1022.3 |
| 20260902035058 | 59 | 279 | 0.0 | 0.0 | 0.00 | 0.00 | 0.00 | 94 | 1022.3 |
| 20260902034932 | 59 | 279 | 0.0 | 0.0 | 0.00 | 0.00 | 0.00 | 94 | 1022.3 |
| 20260902034917 | 59 | 279 | 0.0 | 0.0 | 0.00 | 0.00 | 0.00 | 94 | 1022.3 |
| 20260902034545 | 59 | 279 | 0.0 | 0.0 | 0.00 | 0.00 | 0.00 | 94 | 1022.3 |
| 20260902034404 | 59 | 279 | 0.0 | 0.0 | 0.00 | 0.00 | 0.00 | 94 | 1022.3 |
| 20260902034327 | 59 | 279 | 0.0 | 0.0 | 0.00 | 0.00 | 0.00 | 94 | 1022.4 |
| 20260902033832 | 59 | 279 | 0.0 | 0.0 | 0.00 | 0.00 | 0.00 | 94 | 1022.5 |
| 20260902033747 | 59 | 279 | 0.0 | 0.0 | 0.00 | 0.00 | 0.00 | 93 | 1022.4 |
| 20260902033638 | 59 | 279 | 0.0 | 0.0 | 0.00 | 0.00 | 0.00 | 94 | 1022.4 |
| 20260902033453 | 59 | 279 | 0.0 | 0.0 | 0.00 | 0.00 | 0.00 | 94 | 1022.3 |
| 20260902033339 | 59 | 279 | 0.0 | 0.0 | 0.00 | 0.00 | 0.00 | 93 | 1022.3 |
| 20260902032709 | 59 | 279 | 0.0 | 0.0 | 0.00 | 0.00 | 0.00 | 93 | 1022.4 |
| 20260902032607 | 59 | 279 | 0.0 | 0.0 | 0.00 | 0.00 | 0.00 | 93 | 1022.3 |
| 20260902032500 | 70 | 265 | 2.0 | 2.0 | 0.00 | 0.00 | 0.00 | 73 | 1021.6 |
| 20260902032424 | 60 | 279 | 0.0 | 0.0 | 0.00 | 0.00 | 0.00 | 93 | 1022.3 |
| 20260902032213 | 60 | 279 | 0.0 | 0.0 | 0.00 | 0.00 | 0.00 | 93 | 1022.4 |
| 20260902032153 | 71 | 265 | 0.0 | 3.0 | 0.00 | 0.00 | 0.00 | 73 | 1021.7 |
| 20260902032128 | 71 | 265 | 1.0 | 5.0 | 0.00 | 0.00 | 0.00 | 72 | 1021.5 |
| 20260902032054 | 71 | 254 | 3.0 | 6.0 | 0.00 | 0.00 | 0.00 | 72 | 1021.6 |
| 20260902032026 | 60 | 279 | 0.0 | 0.0 | 0.00 | 0.00 | 0.00 | 93 | 1022.4 |
| 20260902031806 | 60 | 279 | 0.0 | 0.0 | 0.00 | 0.00 | 0.00 | 93 | 1022.5 |
| 20260902031716 | 60 | 279 | 0.0 | 0.0 | 0.00 | 0.00 | 0.00 | 93 | 1022.4 |
| 20260902031700 | 71 | 267 | 3.0 | 6.0 | 0.00 | 0.00 | 0.00 | 71 | 1021.6 |
| 20260902031609 | 60 | 279 | 0.0 | 0.0 | 0.00 | 0.00 | 0.00 | 93 | 1022.5 |
| 20260902031441 | 60 | 279 | 0.0 | 0.0 | 0.00 | 0.00 | 0.00 | 93 | 1022.4 |
| 20260902031231 | 60 | 279 | 0.0 | 0.0 | 0.00 | 0.00 | 0.00 | 93 | 1022.4 |
| 20260902031119 | 60 | 279 | 0.0 | 0.0 | 0.00 | 0.00 | 0.00 | 93 | 1022.4 |
| 20260902031033 | 60 | 279 | 0.0 | 0.0 | 0.00 | 0.00 | 0.00 | 93 | 1022.5 |
| 20260902030852 | 60 | 279 | 0.0 | 0.0 | 0.00 | 0.00 | 0.00 | 93 | 1022.4 |
| 20260902030610 | 60 | 279 | 0.0 | 0.0 | 0.00 | 0.00 | 0.00 | 93 | 1022.4 |
| 20260902030434 | 60 | 279 | 0.0 | 0.0 | 0.00 | 0.00 | 0.00 | 93 | 1022.3 |
| 20260902030234 | 60 | 279 | 0.0 | 0.0 | 0.00 | 0.00 | 0.00 | 93 | 1022.3 |
| 20260902030114 | 60 | 279 | 0.0 | 0.0 | 0.00 | 0.00 | 0.00 | 93 | 1022.3 |
| 20260902030040 | 60 | 279 | 0.0 | 0.0 | 0.00 | 0.00 | 0.00 | 93 | 1022.2 |
| 20260902025929 | 60 | 279 | 0.0 | 0.0 | 0.00 | 0.00 | 0.00 | 93 | 1022.3 |
| 20260902025907 | 60 | 279 | 0.0 | 0.0 | 0.00 | 0.00 | 0.00 | 93 | 1022.3 |
| 20260902025421 | 60 | 279 | 0.0 | 0.0 | 0.00 | 0.00 | 0.00 | 93 | 1022.3 |
| 20260902025009 | 60 | 279 | 0.0 | 0.0 | 0.00 | 0.00 | 0.00 | 93 | 1022.2 |
| 20260902024854 | 60 | 279 | 0.0 | 0.0 | 0.00 | 0.00 | 0.00 | 93 | 1022.1 |
| 20260902024723 | 60 | 279 | 0.0 | 0.0 | 0.00 | 0.00 | 0.00 | 93 | 1022.1 |
| 20260902024643 | 60 | 279 | 0.0 | 0.0 | 0.00 | 0.00 | 0.00 | 93 | 1022.1 |
| 20260902024516 | 60 | 279 | 0.0 | 0.0 | 0.00 | 0.00 | 0.00 | 92 | 1022.1 |
| 20260902024326 | 60 | 279 | 0.0 | 0.0 | 0.00 | 0.00 | 0.00 | 93 | 1022.1 |
| 20260902024236 | 60 | 279 | 0.0 | 0.0 | 0.00 | 0.00 | 0.00 | 93 | 1022.1 |
| 20260902024146 | 60 | 279 | 0.0 | 0.0 | 0.00 | 0.00 | 0.00 | 93 | 1022.1 |
| 20260902024020 | 60 | 279 | 0.0 | 0.0 | 0.00 | 0.00 | 0.00 | 93 | 1022.1 |
| 20260902023653 | 60 | 279 | 0.0 | 0.0 | 0.00 | 0.00 | 0.00 | 93 | 1022.2 |
| 20260902023513 | 60 | 279 | 0.0 | 0.0 | 0.00 | 0.00 | 0.00 | 93 | 1022.2 |
| 20260902022828 | 61 | 279 | 0.0 | 0.0 | 0.00 | 0.00 | 0.00 | 93 | 1022.2 |
| 20260902022712 | 60 | 279 | 0.0 | 0.0 | 0.00 | 0.00 | 0.00 | 92 | 1022.2 |
| 20260902022606 | 60 | 279 | 0.0 | 0.0 | 0.00 | 0.00 | 0.00 | 92 | 1022.2 |
| 20260902022424 | 60 | 279 | 0.0 | 0.0 | 0.00 | 0.00 | 0.00 | 92 | 1022.2 |
| 20260902022210 | 61 | 279 | 0.0 | 0.0 | 0.00 | 0.00 | 0.00 | 92 | 1022.2 |
| 20260902022140 | 73 | 352 | 0.0 | 0.0 | 0.00 | 0.00 | 0.00 | 68 | 1021.1 |
| 20260902022028 | 61 | 279 | 0.0 | 0.0 | 0.00 | 0.00 | 0.00 | 92 | 1022.1 |
| 20260902021958 | 73 | 352 | 0.0 | 3.0 | 0.00 | 0.00 | 0.00 | 67 | 1021.0 |
| 20260902021841 | 61 | 279 | 0.0 | 0.0 | 0.00 | 0.00 | 0.00 | 92 | 1022.1 |
| 20260902021708 | 61 | 279 | 0.0 | 0.0 | 0.00 | 0.00 | 0.00 | 92 | 1022.1 |
| 20260902021651 | 73 | 352 | 2.0 | 4.0 | 0.00 | 0.00 | 0.00 | 67 | 1020.8 |
| 20260902021610 | 61 | 279 | 0.0 | 0.0 | 0.00 | 0.00 | 0.00 | 92 | 1022.0 |
| 20260902021554 | 74 | 344 | 3.0 | 7.0 | 0.00 | 0.00 | 0.00 | 66 | 1020.6 |
| 20260902021426 | 74 | 348 | 3.0 | 8.0 | 0.00 | 0.00 | 0.00 | 66 | 1020.5 |
| 20260902021412 | 61 | 279 | 0.0 | 0.0 | 0.00 | 0.00 | 0.00 | 92 | 1022.1 |
| 20260902021239 | 61 | 279 | 0.0 | 0.0 | 0.00 | 0.00 | 0.00 | 92 | 1022.0 |
| 20260902021232 | 61 | 279 | 0.0 | 0.0 | 0.00 | 0.00 | 0.00 | 92 | 1022.0 |
| 20260902021105 | 61 | 279 | 0.0 | 0.0 | 0.00 | 0.00 | 0.00 | 92 | 1022.0 |
| 20260902020723 | 61 | 279 | 0.0 | 0.0 | 0.00 | 0.00 | 0.00 | 92 | 1022.1 |
| 20260902020645 | 61 | 279 | 0.0 | 0.0 | 0.00 | 0.00 | 0.00 | 92 | 1022.1 |
| 20260902020553 | 61 | 279 | 0.0 | 0.0 | 0.00 | 0.00 | 0.00 | 92 | 1022.0 |
| 20260902020135 | 61 | 279 | 0.0 | 0.0 | 0.00 | 0.00 | 0.00 | 92 | 1022.0 |
| 20260902015932 | 61 | 279 | 0.0 | 0.0 | 0.00 | 0.00 | 0.00 | 91 | 1022.0 |
| 20260902015714 | 61 | 279 | 0.0 | 0.0 | 0.00 | 0.00 | 0.00 | 91 | 1022.0 |
| 20260902015654 | 74 | 352 | 3.0 | 8.0 | 0.00 | 0.00 | 0.00 | 66 | 1020.5 |
| 20260902015640 | 74 | 318 | 2.0 | 5.0 | 0.00 | 0.00 | 0.00 | 66 | 1020.4 |
| 20260902015540 | 61 | 279 | 0.0 | 0.0 | 0.00 | 0.00 | 0.00 | 91 | 1022.0 |
| 20260902015429 | 77 | 346 | 4.0 | 8.0 | 0.00 | 0.00 | 0.00 | 63 | 1019.9 |
| 20260902015357 | 61 | 279 | 0.0 | 0.0 | 0.00 | 0.00 | 0.00 | 91 | 1022.0 |
| 20260902015242 | 61 | 279 | 0.0 | 0.0 | 0.00 | 0.00 | 0.00 | 91 | 1021.9 |
| 20260902015226 | 61 | 279 | 0.0 | 0.0 | 0.00 | 0.00 | 0.00 | 91 | 1022.0 |
| 20260902015127 | 61 | 279 | 0.0 | 0.0 | 0.00 | 0.00 | 0.00 | 91 | 1022.0 |
| 20260902014712 | 61 | 279 | 0.0 | 0.0 | 0.00 | 0.00 | 0.00 | 91 | 1022.1 |
| 20260902014645 | 77 | 325 | 4.0 | 8.0 | 0.00 | 0.00 | 0.00 | 63 | 1019.8 |
| 20260902014539 | 61 | 279 | 0.0 | 0.0 | 0.00 | 0.00 | 0.00 | 91 | 1022.1 |
| 20260902014351 | 61 | 279 | 0.0 | 0.0 | 0.00 | 0.00 | 0.00 | 91 | 1022.0 |
| 20260902014213 | 62 | 279 | 0.0 | 0.0 | 0.00 | 0.00 | 0.00 | 91 | 1022.0 |
| 20260902014137 | 61 | 279 | 0.0 | 0.0 | 0.00 | 0.00 | 0.00 | 91 | 1022.1 |
| 20260902014020 | 62 | 279 | 0.0 | 0.0 | 0.00 | 0.00 | 0.00 | 91 | 1022.1 |
| 20260902013922 | 62 | 279 | 0.0 | 0.0 | 0.00 | 0.00 | 0.00 | 91 | 1022.0 |
| 20260902013815 | 62 | 279 | 0.0 | 0.0 | 0.00 | 0.00 | 0.00 | 91 | 1022.1 |
| 20260902013748 | 62 | 279 | 0.0 | 0.0 | 0.00 | 0.00 | 0.00 | 91 | 1022.1 |
| 20260902013657 | 62 | 279 | 0.0 | 0.0 | 0.00 | 0.00 | 0.00 | 91 | 1022.1 |
| 20260902013316 | 62 | 279 | 0.0 | 0.0 | 0.00 | 0.00 | 0.00 | 91 | 1022.1 |
| 20260902013205 | 62 | 279 | 0.0 | 0.0 | 0.00 | 0.00 | 0.00 | 91 | 1022.2 |
| 20260902013125 | 62 | 279 | 0.0 | 0.0 | 0.00 | 0.00 | 0.00 | 91 | 1022.1 |
| 20260902013013 | 62 | 279 | 0.0 | 0.0 | 0.00 | 0.00 | 0.00 | 91 | 1022.2 |
| 20260902012935 | 62 | 279 | 0.0 | 0.0 | 0.00 | 0.00 | 0.00 | 91 | 1022.1 |
| 20260902012840 | 62 | 279 | 0.0 | 0.0 | 0.00 | 0.00 | 0.00 | 91 | 1022.2 |
| 20260902012755 | 62 | 279 | 0.0 | 0.0 | 0.00 | 0.00 | 0.00 | 91 | 1022.1 |
| 20260902012108 | 62 | 279 | 0.0 | 0.0 | 0.00 | 0.00 | 0.00 | 90 | 1022.2 |
| 20260902012010 | 62 | 279 | 0.0 | 0.0 | 0.00 | 0.00 | 0.00 | 90 | 1022.3 |
| 20260902011634 | 62 | 279 | 0.0 | 0.0 | 0.00 | 0.00 | 0.00 | 90 | 1022.3 |
| 20260902011451 | 62 | 279 | 0.0 | 0.0 | 0.00 | 0.00 | 0.00 | 91 | 1022.2 |
| 20260902011436 | 62 | 279 | 0.0 | 0.0 | 0.00 | 0.00 | 0.00 | 91 | 1022.2 |
| 20260902011336 | 62 | 279 | 0.0 | 0.0 | 0.00 | 0.00 | 0.00 | 91 | 1022.2 |
| 20260902011245 | 62 | 279 | 0.0 | 0.0 | 0.00 | 0.00 | 0.00 | 90 | 1022.2 |
| 20260902011128 | 62 | 279 | 0.0 | 0.0 | 0.00 | 0.00 | 0.00 | 90 | 1022.2 |
| 20260902010745 | 62 | 279 | 0.0 | 0.0 | 0.00 | 0.00 | 0.00 | 90 | 1022.2 |
| 20260902010634 | 62 | 279 | 0.0 | 0.0 | 0.00 | 0.00 | 0.00 | 90 | 1022.2 |
| 20260902010620 | 62 | 279 | 0.0 | 0.0 | 0.00 | 0.00 | 0.00 | 90 | 1022.2 |
| 20260902010513 | 62 | 279 | 0.0 | 0.0 | 0.00 | 0.00 | 0.00 | 90 | 1022.2 |
| 20260902010105 | 62 | 279 | 0.0 | 0.0 | 0.00 | 0.00 | 0.00 | 90 | 1022.2 |
| 20260902010033 | 62 | 279 | 0.0 | 0.0 | 0.00 | 0.00 | 0.00 | 90 | 1022.2 |
| 20260902005937 | 62 | 279 | 0.0 | 0.0 | 0.00 | 0.00 | 0.00 | 90 | 1022.2 |
| 20260902005903 | 62 | 279 | 0.0 | 0.0 | 0.00 | 0.00 | 0.00 | 90 | 1022.2 |
| 20260902005845 | 62 | 279 | 0.0 | 0.0 | 0.00 | 0.00 | 0.00 | 90 | 1022.2 |
| 20260902005744 | 62 | 279 | 0.0 | 0.0 | 0.00 | 0.00 | 0.00 | 90 | 1022.2 |
| 20260902005708 | 62 | 279 | 0.0 | 0.0 | 0.00 | 0.00 | 0.00 | 90 | 1022.3 |
| 20260902005657 | 62 | 279 | 0.0 | 0.0 | 0.00 | 0.00 | 0.00 | 90 | 1022.2 |
| 20260902005619 | 62 | 279 | 0.0 | 0.0 | 0.00 | 0.00 | 0.00 | 90 | 1022.2 |
| 20260902005519 | 62 | 279 | 0.0 | 0.0 | 0.00 | 0.00 | 0.00 | 90 | 1022.2 |
| 20260902005457 | 62 | 279 | 0.0 | 0.0 | 0.00 | 0.00 | 0.00 | 90 | 1022.2 |
| 20260902005435 | 62 | 279 | 0.0 | 0.0 | 0.00 | 0.00 | 0.00 | 90 | 1022.2 |
| 20260902005340 | 62 | 279 | 0.0 | 0.0 | 0.00 | 0.00 | 0.00 | 90 | 1022.2 |
| 20260902005054 | 62 | 279 | 0.0 | 0.0 | 0.00 | 0.00 | 0.00 | 90 | 1022.3 |
| 20260902004959 | 62 | 279 | 0.0 | 0.0 | 0.00 | 0.00 | 0.00 | 90 | 1022.2 |
| 20260902004915 | 63 | 279 | 0.0 | 0.0 | 0.00 | 0.00 | 0.00 | 90 | 1022.2 |
| 20260902004851 | 63 | 279 | 0.0 | 0.0 | 0.00 | 0.00 | 0.00 | 90 | 1022.2 |
| 20260902004833 | 63 | 279 | 0.0 | 0.0 | 0.00 | 0.00 | 0.00 | 90 | 1022.2 |
| 20260902004724 | 63 | 279 | 0.0 | 0.0 | 0.00 | 0.00 | 0.00 | 89 | 1022.2 |
| 20260902004614 | 63 | 279 | 0.0 | 0.0 | 0.00 | 0.00 | 0.00 | 89 | 1022.1 |
| 20260902004529 | 63 | 279 | 0.0 | 0.0 | 0.00 | 0.00 | 0.00 | 89 | 1022.1 |
| 20260902004203 | 63 | 279 | 0.0 | 0.0 | 0.00 | 0.00 | 0.00 | 89 | 1022.2 |
| 20260902004137 | 63 | 279 | 0.0 | 0.0 | 0.00 | 0.00 | 0.00 | 89 | 1022.2 |
| 20260902004045 | 63 | 279 | 0.0 | 0.0 | 0.00 | 0.00 | 0.00 | 89 | 1022.2 |
| 20260902003956 | 63 | 279 | 0.0 | 0.0 | 0.00 | 0.00 | 0.00 | 89 | 1022.2 |
| 20260902003857 | 63 | 279 | 0.0 | 1.0 | 0.00 | 0.00 | 0.00 | 88 | 1022.1 |
| 20260902003801 | 63 | 279 | 0.0 | 1.0 | 0.00 | 0.00 | 0.00 | 88 | 1022.2 |
| 20260902003152 | 63 | 279 | 0.0 | 1.0 | 0.00 | 0.00 | 0.00 | 87 | 1022.2 |
| 20260902003103 | 63 | 279 | 0.0 | 1.0 | 0.00 | 0.00 | 0.00 | 87 | 1022.2 |
| 20260902003047 | 63 | 279 | 0.0 | 1.0 | 0.00 | 0.00 | 0.00 | 87 | 1022.2 |
| 20260902002924 | 64 | 279 | 0.0 | 0.0 | 0.00 | 0.00 | 0.00 | 87 | 1022.1 |
| 20260902002839 | 64 | 279 | 0.0 | 0.0 | 0.00 | 0.00 | 0.00 | 87 | 1022.0 |
| 20260902002213 | 64 | 279 | 0.0 | 0.0 | 0.00 | 0.00 | 0.00 | 86 | 1022.0 |
| 20260902001918 | 64 | 279 | 0.0 | 0.0 | 0.00 | 0.00 | 0.00 | 86 | 1022.0 |
| 20260902001035 | 64 | 279 | 0.0 | 0.0 | 0.00 | 0.00 | 0.00 | 86 | 1022.0 |
| 20260902000943 | 64 | 279 | 0.0 | 0.0 | 0.00 | 0.00 | 0.00 | 86 | 1022.0 |
| 20260902000906 | 64 | 279 | 0.0 | 0.0 | 0.00 | 0.00 | 0.00 | 85 | 1022.0 |
| 20260902000838 | 64 | 279 | 0.0 | 0.0 | 0.00 | 0.00 | 0.00 | 85 | 1022.0 |
| 20260902000727 | 65 | 279 | 0.0 | 0.0 | 0.00 | 0.00 | 0.00 | 85 | 1022.0 |
| 20260902000634 | 65 | 279 | 0.0 | 0.0 | 0.00 | 0.00 | 0.00 | 85 | 1022.0 |
| 20260902000618 | 65 | 279 | 0.0 | 0.0 | 0.00 | 0.00 | 0.00 | 85 | 1022.1 |
| 20260902000534 | 65 | 279 | 0.0 | 0.0 | 0.00 | 0.00 | 0.00 | 85 | 1022.0 |
| 20260902000439 | 65 | 279 | 0.0 | 0.0 | 0.00 | 0.00 | 0.00 | 85 | 1021.9 |
| 20260902000414 | 65 | 279 | 0.0 | 0.0 | 0.00 | 0.00 | 0.00 | 85 | 1022.0 |
| 20260902000359 | 65 | 279 | 0.0 | 0.0 | 0.00 | 0.00 | 0.00 | 85 | 1022.0 |
| 20260902000250 | 65 | 279 | 0.0 | 0.0 | 0.00 | 0.00 | 0.00 | 84 | 1022.0 |
| 20260902000150 | 65 | 279 | 0.0 | 0.0 | 0.00 | 0.00 | 0.00 | 84 | 1022.0 |
| 20260901235527 | 65 | 279 | 0.0 | 0.0 | 0.00 | 0.00 | 0.00 | 84 | 1022.0 |
| 20260901235513 | 65 | 279 | 0.0 | 0.0 | 0.00 | 0.00 | 0.00 | 84 | 1022.0 |
| 20260901234839 | 65 | 279 | 0.0 | 0.0 | 0.00 | 0.00 | 0.00 | 84 | 1022.1 |
| 20260901234457 | 65 | 279 | 0.0 | 0.0 | 0.00 | 0.00 | 0.00 | 83 | 1022.0 |
| 20260901234428 | 65 | 279 | 0.0 | 0.0 | 0.00 | 0.00 | 0.00 | 83 | 1022.1 |
| 20260901234409 | 66 | 279 | 0.0 | 0.0 | 0.00 | 0.00 | 0.00 | 83 | 1022.0 |
| 20260901233442 | 66 | 279 | 0.0 | 1.0 | 0.00 | 0.00 | 0.00 | 83 | 1022.0 |
| 20260901233342 | 66 | 279 | 0.0 | 2.0 | 0.00 | 0.00 | 0.00 | 83 | 1022.1 |
| 20260901233255 | 66 | 279 | 0.0 | 2.0 | 0.00 | 0.00 | 0.00 | 83 | 1022.1 |
| 20260901233236 | 66 | 279 | 0.0 | 2.0 | 0.00 | 0.00 | 0.00 | 83 | 1022.0 |
| 20260901233139 | 66 | 279 | 0.0 | 2.0 | 0.00 | 0.00 | 0.00 | 83 | 1022.0 |
| 20260901233037 | 66 | 279 | 0.0 | 2.0 | 0.00 | 0.00 | 0.00 | 83 | 1021.9 |
| 20260901233012 | 66 | 279 | 1.0 | 2.0 | 0.00 | 0.00 | 0.00 | 83 | 1022.0 |
| 20260901232923 | 66 | 279 | 1.0 | 2.0 | 0.00 | 0.00 | 0.00 | 83 | 1022.0 |
| 20260901232811 | 66 | 260 | 1.0 | 3.0 | 0.00 | 0.00 | 0.00 | 83 | 1022.0 |
| 20260901232711 | 66 | 264 | 1.0 | 4.0 | 0.00 | 0.00 | 0.00 | 82 | 1021.9 |
| 20260901232644 | 67 | 271 | 1.0 | 4.0 | 0.00 | 0.00 | 0.00 | 82 | 1021.9 |
| 20260901232517 | 67 | 238 | 1.0 | 4.0 | 0.00 | 0.00 | 0.00 | 83 | 1021.9 |
| 20260901232400 | 67 | 265 | 1.0 | 4.0 | 0.00 | 0.00 | 0.00 | 82 | 1022.0 |
| 20260901232345 | 67 | 265 | 1.0 | 4.0 | 0.00 | 0.00 | 0.00 | 82 | 1021.9 |
| 20260901232246 | 67 | 271 | 1.0 | 4.0 | 0.00 | 0.00 | 0.00 | 82 | 1021.9 |
| 20260901231757 | 67 | 278 | 1.0 | 3.0 | 0.00 | 0.00 | 0.00 | 82 | 1022.0 |
| 20260901231341 | 67 | 248 | 0.0 | 2.0 | 0.00 | 0.00 | 0.00 | 81 | 1021.9 |
| 20260901231019 | 67 | 248 | 0.0 | 1.0 | 0.00 | 0.00 | 0.00 | 81 | 1021.9 |
| 20260901230616 | 67 | 248 | 0.0 | 3.0 | 0.00 | 0.00 | 0.00 | 81 | 1021.9 |
| 20260901230530 | 67 | 248 | 0.0 | 3.0 | 0.00 | 0.00 | 0.00 | 81 | 1022.0 |
| 20260901230511 | 67 | 248 | 0.0 | 3.0 | 0.00 | 0.00 | 0.00 | 81 | 1021.9 |
| 20260901230403 | 67 | 248 | 0.0 | 3.0 | 0.00 | 0.00 | 0.00 | 81 | 1022.0 |
| 20260901230255 | 67 | 248 | 1.0 | 3.0 | 0.00 | 0.00 | 0.00 | 80 | 1022.0 |
| 20260901230232 | 67 | 248 | 1.0 | 3.0 | 0.00 | 0.00 | 0.00 | 80 | 1021.9 |
| 20260901230143 | 67 | 279 | 1.0 | 3.0 | 0.00 | 0.00 | 0.00 | 80 | 1021.9 |
| 20260901230029 | 67 | 279 | 1.0 | 3.0 | 0.00 | 0.00 | 0.00 | 80 | 1021.9 |
| 20260901225306 | 68 | 252 | 2.0 | 3.0 | 0.00 | 0.00 | 0.00 | 80 | 1022.0 |
| 20260901225128 | 68 | 265 | 1.0 | 4.0 | 0.00 | 0.00 | 0.00 | 80 | 1021.9 |
| 20260901225112 | 68 | 259 | 1.0 | 4.0 | 0.00 | 0.00 | 0.00 | 80 | 1021.9 |
| 20260901224643 | 68 | 254 | 2.0 | 4.0 | 0.00 | 0.00 | 0.00 | 80 | 1021.9 |
| 20260901224531 | 68 | 254 | 2.0 | 4.0 | 0.00 | 0.00 | 0.00 | 80 | 1021.9 |
| 20260901224453 | 68 | 250 | 2.0 | 4.0 | 0.00 | 0.00 | 0.00 | 80 | 1022.0 |
| 20260901224259 | 68 | 238 | 2.0 | 4.0 | 0.00 | 0.00 | 0.00 | 80 | 1021.9 |
| 20260901224117 | 68 | 275 | 2.0 | 4.0 | 0.00 | 0.00 | 0.00 | 79 | 1022.0 |
| 20260901224101 | 68 | 275 | 2.0 | 4.0 | 0.00 | 0.00 | 0.00 | 79 | 1021.9 |
| 20260901223928 | 68 | 287 | 2.0 | 4.0 | 0.00 | 0.00 | 0.00 | 79 | 1022.0 |
| 20260901223742 | 68 | 267 | 2.0 | 4.0 | 0.00 | 0.00 | 0.00 | 79 | 1022.0 |
| 20260901223641 | 68 | 244 | 2.0 | 4.0 | 0.00 | 0.00 | 0.00 | 79 | 1022.0 |
| 20260901223556 | 68 | 280 | 2.0 | 4.0 | 0.00 | 0.00 | 0.00 | 79 | 1022.0 |
| 20260901223426 | 68 | 273 | 2.0 | 4.0 | 0.00 | 0.00 | 0.00 | 79 | 1022.0 |
| 20260901223246 | 68 | 284 | 3.0 | 4.0 | 0.00 | 0.00 | 0.00 | 78 | 1022.0 |
| 20260901223239 | 68 | 285 | 3.0 | 4.0 | 0.00 | 0.00 | 0.00 | 78 | 1022.0 |
| 20260901223104 | 68 | 292 | 3.0 | 4.0 | 0.00 | 0.00 | 0.00 | 78 | 1022.0 |
| 20260901222615 | 68 | 291 | 2.0 | 4.0 | 0.00 | 0.00 | 0.00 | 78 | 1021.9 |
| 20260901222533 | 68 | 276 | 2.0 | 4.0 | 0.00 | 0.00 | 0.00 | 78 | 1021.9 |
| 20260901222358 | 68 | 265 | 2.0 | 4.0 | 0.00 | 0.00 | 0.00 | 78 | 1021.9 |
| 20260901222011 | 69 | 275 | 2.0 | 4.0 | 0.00 | 0.00 | 0.00 | 78 | 1021.8 |
| 20260901221439 | 69 | 275 | 2.0 | 3.0 | 0.00 | 0.00 | 0.00 | 77 | 1021.9 |
| 20260901221345 | 69 | 258 | 2.0 | 3.0 | 0.00 | 0.00 | 0.00 | 77 | 1021.8 |
| 20260901220500 | 69 | 259 | 2.0 | 3.0 | 0.00 | 0.00 | 0.00 | 77 | 1021.7 |
| 20260901220311 | 69 | 259 | 0.0 | 2.0 | 0.00 | 0.00 | 0.00 | 77 | 1021.7 |
| 20260901220202 | 69 | 247 | 0.0 | 0.0 | 0.00 | 0.00 | 0.00 | 77 | 1021.7 |
| 20260901220124 | 69 | 247 | 0.0 | 0.0 | 0.00 | 0.00 | 0.00 | 76 | 1021.6 |
| 20260901220045 | 69 | 247 | 0.0 | 0.0 | 0.00 | 0.00 | 0.00 | 76 | 1021.6 |
| 20260901215634 | 69 | 247 | 0.0 | 3.0 | 0.00 | 0.00 | 0.00 | 76 | 1021.5 |
| 20260901215536 | 69 | 247 | 0.0 | 3.0 | 0.00 | 0.00 | 0.00 | 76 | 1021.5 |
| 20260901215442 | 69 | 247 | 0.0 | 3.0 | 0.00 | 0.00 | 0.00 | 76 | 1021.5 |
| 20260901215401 | 69 | 247 | 1.0 | 3.0 | 0.00 | 0.00 | 0.00 | 75 | 1021.5 |
| 20260901215329 | 69 | 247 | 2.0 | 3.0 | 0.00 | 0.00 | 0.00 | 75 | 1021.5 |
| 20260901215212 | 69 | 250 | 2.0 | 3.0 | 0.00 | 0.00 | 0.00 | 75 | 1021.5 |
| 20260901215029 | 69 | 264 | 2.0 | 3.0 | 0.00 | 0.00 | 0.00 | 75 | 1021.6 |
| 20260901215025 | 69 | 264 | 2.0 | 3.0 | 0.00 | 0.00 | 0.00 | 75 | 1021.6 |
| 20260901214456 | 70 | 270 | 0.0 | 2.0 | 0.00 | 0.00 | 0.00 | 75 | 1021.5 |
| 20260901214155 | 70 | 270 | 0.0 | 2.0 | 0.00 | 0.00 | 0.00 | 75 | 1021.5 |
| 20260901214054 | 70 | 270 | 0.0 | 4.0 | 0.00 | 0.00 | 0.00 | 75 | 1021.5 |
| 20260901213710 | 70 | 270 | 0.0 | 4.0 | 0.00 | 0.00 | 0.00 | 75 | 1021.5 |
| 20260901213543 | 70 | 270 | 1.0 | 4.0 | 0.00 | 0.00 | 0.00 | 75 | 1021.5 |
| 20260901213405 | 70 | 253 | 2.0 | 4.0 | 0.00 | 0.00 | 0.00 | 74 | 1021.6 |
| 20260901213327 | 70 | 240 | 1.0 | 4.0 | 0.00 | 0.00 | 0.00 | 74 | 1021.6 |
| 20260901212847 | 70 | 259 | 1.0 | 3.0 | 0.00 | 0.00 | 0.00 | 74 | 1021.5 |
| 20260901212728 | 70 | 258 | 2.0 | 3.0 | 0.00 | 0.00 | 0.00 | 74 | 1021.7 |
| 20260901212703 | 70 | 240 | 2.0 | 3.0 | 0.00 | 0.00 | 0.00 | 74 | 1021.6 |
| 20260901211916 | 70 | 265 | 2.0 | 2.0 | 0.00 | 0.00 | 0.00 | 73 | 1021.7 |
| 20260901211818 | 70 | 265 | 2.0 | 2.0 | 0.00 | 0.00 | 0.00 | 73 | 1021.7 |
| 20260901211718 | 70 | 265 | 2.0 | 3.0 | 0.00 | 0.00 | 0.00 | 73 | 1021.7 |
| 20260901211625 | 71 | 265 | 0.0 | 3.0 | 0.00 | 0.00 | 0.00 | 73 | 1021.6 |
| 20260901211232 | 71 | 265 | 0.0 | 4.0 | 0.00 | 0.00 | 0.00 | 73 | 1021.5 |
| 20260901210908 | 71 | 265 | 1.0 | 5.0 | 0.00 | 0.00 | 0.00 | 72 | 1021.5 |
| 20260901210758 | 71 | 265 | 1.0 | 5.0 | 0.00 | 0.00 | 0.00 | 72 | 1021.5 |
| 20260901210634 | 71 | 257 | 2.0 | 5.0 | 0.00 | 0.00 | 0.00 | 72 | 1021.6 |
| 20260901210533 | 71 | 252 | 2.0 | 5.0 | 0.00 | 0.00 | 0.00 | 72 | 1021.6 |
| 20260901210504 | 71 | 261 | 2.0 | 5.0 | 0.00 | 0.00 | 0.00 | 72 | 1021.7 |
| 20260901205927 | 71 | 265 | 3.0 | 6.0 | 0.00 | 0.00 | 0.00 | 71 | 1021.6 |
| 20260901205532 | 71 | 242 | 3.0 | 6.0 | 0.00 | 0.00 | 0.00 | 71 | 1021.5 |
| 20260901205338 | 71 | 258 | 3.0 | 6.0 | 0.00 | 0.00 | 0.00 | 71 | 1021.5 |
| 20260901205239 | 71 | 257 | 3.0 | 6.0 | 0.00 | 0.00 | 0.00 | 71 | 1021.5 |
| 20260901205158 | 71 | 254 | 3.0 | 6.0 | 0.00 | 0.00 | 0.00 | 71 | 1021.5 |
| 20260901205000 | 71 | 257 | 3.0 | 6.0 | 0.00 | 0.00 | 0.00 | 71 | 1021.4 |
| 20260901204818 | 71 | 257 | 2.0 | 4.0 | 0.00 | 0.00 | 0.00 | 71 | 1021.4 |
| 20260901204411 | 71 | 271 | 2.0 | 4.0 | 0.00 | 0.00 | 0.00 | 71 | 1021.4 |
| 20260901204243 | 71 | 257 | 2.0 | 4.0 | 0.00 | 0.00 | 0.00 | 71 | 1021.4 |
| 20260901204206 | 71 | 262 | 2.0 | 4.0 | 0.00 | 0.00 | 0.00 | 71 | 1021.4 |
| 20260901204131 | 71 | 262 | 2.0 | 4.0 | 0.00 | 0.00 | 0.00 | 71 | 1021.4 |
| 20260901203951 | 71 | 276 | 2.0 | 4.0 | 0.00 | 0.00 | 0.00 | 71 | 1021.3 |
| 20260901203812 | 71 | 303 | 2.0 | 3.0 | 0.00 | 0.00 | 0.00 | 71 | 1021.3 |
| 20260901203634 | 71 | 313 | 0.0 | 2.0 | 0.00 | 0.00 | 0.00 | 71 | 1021.2 |
| 20260901203521 | 72 | 352 | 0.0 | 0.0 | 0.00 | 0.00 | 0.00 | 70 | 1021.2 |
| 20260901203457 | 72 | 352 | 0.0 | 0.0 | 0.00 | 0.00 | 0.00 | 70 | 1021.2 |
| 20260901203430 | 72 | 352 | 0.0 | 0.0 | 0.00 | 0.00 | 0.00 | 70 | 1021.2 |
| 20260901203321 | 72 | 352 | 0.0 | 0.0 | 0.00 | 0.00 | 0.00 | 70 | 1021.1 |
| 20260901203000 | 72 | 352 | 0.0 | 0.0 | 0.00 | 0.00 | 0.00 | 69 | 1021.1 |
| 20260901202851 | 73 | 352 | 0.0 | 0.0 | 0.00 | 0.00 | 0.00 | 69 | 1021.1 |
| 20260901202453 | 73 | 352 | 0.0 | 0.0 | 0.00 | 0.00 | 0.00 | 68 | 1021.0 |
| 20260901202423 | 73 | 352 | 0.0 | 1.0 | 0.00 | 0.00 | 0.00 | 68 | 1021.1 |
| 20260901202318 | 73 | 352 | 0.0 | 1.0 | 0.00 | 0.00 | 0.00 | 68 | 1021.0 |
| 20260901202234 | 73 | 352 | 0.0 | 2.0 | 0.00 | 0.00 | 0.00 | 68 | 1021.0 |
| 20260901202221 | 73 | 352 | 0.0 | 2.0 | 0.00 | 0.00 | 0.00 | 68 | 1021.0 |
| 20260901202118 | 73 | 352 | 0.0 | 3.0 | 0.00 | 0.00 | 0.00 | 67 | 1021.0 |
| 20260901202018 | 73 | 352 | 0.0 | 3.0 | 0.00 | 0.00 | 0.00 | 67 | 1021.1 |
| 20260901201702 | 73 | 352 | 0.0 | 3.0 | 0.00 | 0.00 | 0.00 | 67 | 1021.0 |
| 20260901201552 | 73 | 352 | 0.0 | 4.0 | 0.00 | 0.00 | 0.00 | 67 | 1020.9 |
| 20260901201459 | 73 | 352 | 1.0 | 4.0 | 0.00 | 0.00 | 0.00 | 67 | 1020.9 |
| 20260901201443 | 73 | 352 | 1.0 | 4.0 | 0.00 | 0.00 | 0.00 | 67 | 1020.9 |
| 20260901201309 | 73 | 352 | 2.0 | 4.0 | 0.00 | 0.00 | 0.00 | 67 | 1020.9 |
| 20260901201200 | 73 | 352 | 2.0 | 4.0 | 0.00 | 0.00 | 0.00 | 67 | 1020.8 |
| 20260901200809 | 74 | 352 | 2.0 | 4.0 | 0.00 | 0.00 | 0.00 | 66 | 1020.8 |
| 20260901200640 | 74 | 352 | 2.0 | 6.0 | 0.00 | 0.00 | 0.00 | 66 | 1020.8 |
| 20260901200531 | 74 | 352 | 2.0 | 6.0 | 0.00 | 0.00 | 0.00 | 66 | 1020.8 |
| 20260901200502 | 74 | 352 | 2.0 | 6.0 | 0.00 | 0.00 | 0.00 | 66 | 1020.8 |
| 20260901200343 | 74 | 352 | 2.0 | 6.0 | 0.00 | 0.00 | 0.00 | 66 | 1020.8 |
| 20260901200215 | 74 | 347 | 2.0 | 6.0 | 0.00 | 0.00 | 0.00 | 66 | 1020.7 |
| 20260901200146 | 74 | 352 | 4.0 | 6.0 | 0.00 | 0.00 | 0.00 | 66 | 1020.8 |
| 20260901200048 | 74 | 352 | 4.0 | 6.0 | 0.00 | 0.00 | 0.00 | 66 | 1020.8 |
| 20260901195905 | 74 | 344 | 3.0 | 7.0 | 0.00 | 0.00 | 0.00 | 66 | 1020.7 |
| 20260901195749 | 74 | 351 | 3.0 | 7.0 | 0.00 | 0.00 | 0.00 | 66 | 1020.7 |
| 20260901195729 | 74 | 351 | 3.0 | 7.0 | 0.00 | 0.00 | 0.00 | 66 | 1020.7 |
| 20260901195216 | 74 | 340 | 2.0 | 7.0 | 0.00 | 0.00 | 0.00 | 66 | 1020.5 |
| 20260901195141 | 74 | 326 | 4.0 | 7.0 | 0.00 | 0.00 | 0.00 | 66 | 1020.6 |
| 20260901195036 | 74 | 352 | 4.0 | 8.0 | 0.00 | 0.00 | 0.00 | 66 | 1020.6 |
| 20260901194852 | 74 | 5 | 3.0 | 8.0 | 0.00 | 0.00 | 0.00 | 66 | 1020.6 |
| 20260901194501 | 74 | 347 | 3.0 | 8.0 | 0.00 | 0.00 | 0.00 | 66 | 1020.6 |
| 20260901194328 | 74 | 352 | 3.0 | 8.0 | 0.00 | 0.00 | 0.00 | 66 | 1020.5 |
| 20260901193928 | 74 | 352 | 3.0 | 8.0 | 0.00 | 0.00 | 0.00 | 66 | 1020.5 |
| 20260901193426 | 74 | 352 | 3.0 | 5.0 | 0.00 | 0.00 | 0.00 | 66 | 1020.4 |
| 20260901193327 | 75 | 352 | 2.0 | 5.0 | 0.00 | 0.00 | 0.00 | 66 | 1020.5 |
| 20260901193305 | 75 | 352 | 2.0 | 5.0 | 0.00 | 0.00 | 0.00 | 66 | 1020.4 |
| 20260901193111 | 75 | 333 | 2.0 | 8.0 | 0.00 | 0.00 | 0.00 | 66 | 1020.3 |
| 20260901192948 | 75 | 319 | 1.0 | 8.0 | 0.00 | 0.00 | 0.00 | 66 | 1020.3 |
| 20260901192918 | 75 | 329 | 2.0 | 8.0 | 0.00 | 0.00 | 0.00 | 66 | 1020.4 |
| 20260901192813 | 75 | 342 | 2.0 | 8.0 | 0.00 | 0.00 | 0.00 | 66 | 1020.3 |
| 20260901192630 | 75 | 344 | 2.0 | 8.0 | 0.00 | 0.00 | 0.00 | 65 | 1020.2 |
| 20260901192537 | 75 | 344 | 4.0 | 8.0 | 0.00 | 0.00 | 0.00 | 65 | 1020.2 |
| 20260901192513 | 75 | 346 | 4.0 | 8.0 | 0.00 | 0.00 | 0.00 | 65 | 1020.1 |
| 20260901192338 | 75 | 351 | 3.0 | 6.0 | 0.00 | 0.00 | 0.00 | 65 | 1020.2 |
| 20260901192211 | 76 | 336 | 3.0 | 6.0 | 0.00 | 0.00 | 0.00 | 65 | 1020.2 |
| 20260901192132 | 76 | 352 | 3.0 | 6.0 | 0.00 | 0.00 | 0.00 | 65 | 1020.1 |
| 20260901192030 | 76 | 332 | 3.0 | 6.0 | 0.00 | 0.00 | 0.00 | 64 | 1020.1 |
| 20260901191834 | 76 | 327 | 3.0 | 5.0 | 0.00 | 0.00 | 0.00 | 64 | 1020.1 |
| 20260901191729 | 76 | 9 | 3.0 | 5.0 | 0.00 | 0.00 | 0.00 | 64 | 1020.0 |
| 20260901191654 | 76 | 334 | 3.0 | 5.0 | 0.00 | 0.00 | 0.00 | 64 | 1020.0 |
| 20260901191520 | 76 | 345 | 3.0 | 8.0 | 0.00 | 0.00 | 0.00 | 64 | 1020.1 |
| 20260901191316 | 76 | 342 | 3.0 | 8.0 | 0.00 | 0.00 | 0.00 | 64 | 1020.1 |
| 20260901191148 | 76 | 331 | 2.0 | 8.0 | 0.00 | 0.00 | 0.00 | 64 | 1020.0 |
| 20260901191014 | 76 | 346 | 4.0 | 8.0 | 0.00 | 0.00 | 0.00 | 63 | 1020.0 |
| 20260901190911 | 76 | 348 | 4.0 | 8.0 | 0.00 | 0.00 | 0.00 | 63 | 1020.0 |
| 20260901190825 | 77 | 5 | 4.0 | 8.0 | 0.00 | 0.00 | 0.00 | 63 | 1019.9 |
| 20260901190659 | 77 | 342 | 4.0 | 8.0 | 0.00 | 0.00 | 0.00 | 63 | 1019.9 |
| 20260901190514 | 77 | 350 | 4.0 | 8.0 | 0.00 | 0.00 | 0.00 | 63 | 1019.8 |
| 20260901190457 | 77 | 352 | 4.0 | 8.0 | 0.00 | 0.00 | 0.00 | 63 | 1019.8 |
| 20260901185654 | 77 | 352 | 4.0 | 8.0 | 0.00 | 0.00 | 0.00 | 62 | 1019.9 |
| 20260901185608 | 77 | 5 | 4.0 | 8.0 | 0.00 | 0.00 | 0.00 | 62 | 1019.9 |
| 20260901185421 | 78 | 316 | 4.0 | 8.0 | 0.00 | 0.00 | 0.00 | 62 | 1019.8 |
| 20260901185233 | 78 | 344 | 3.0 | 8.0 | 0.00 | 0.00 | 0.00 | 62 | 1019.7 |
| 20260901185058 | 78 | 292 | 2.0 | 8.0 | 0.00 | 0.00 | 0.00 | 62 | 1019.7 |
| 20260901184910 | 78 | 343 | 4.0 | 8.0 | 0.00 | 0.00 | 0.00 | 62 | 1019.7 |
| 20260901184819 | 78 | 309 | 3.0 | 9.0 | 0.00 | 0.00 | 0.00 | 62 | 1019.7 |
| 20260901184729 | 78 | 338 | 3.0 | 9.0 | 0.00 | 0.00 | 0.00 | 62 | 1019.7 |
| 20260901184544 | 78 | 346 | 3.0 | 9.0 | 0.00 | 0.00 | 0.00 | 61 | 1019.6 |
| 20260901184404 | 78 | 5 | 4.0 | 9.0 | 0.00 | 0.00 | 0.00 | 61 | 1019.6 |
| 20260901184220 | 79 | 352 | 4.0 | 9.0 | 0.00 | 0.00 | 0.00 | 61 | 1019.6 |
| 20260901184050 | 79 | 341 | 5.0 | 9.0 | 0.00 | 0.00 | 0.00 | 61 | 1019.6 |
| 20260901183948 | 79 | 342 | 3.0 | 9.0 | 0.00 | 0.00 | 0.00 | 61 | 1019.4 |
| 20260901183903 | 79 | 292 | 4.0 | 9.0 | 0.00 | 0.00 | 0.00 | 61 | 1019.5 |
| 20260901183722 | 79 | 11 | 5.0 | 11.0 | 0.00 | 0.00 | 0.00 | 61 | 1019.5 |
| 20260901183539 | 79 | 341 | 5.0 | 11.0 | 0.00 | 0.00 | 0.00 | 61 | 1019.6 |
| 20260901183356 | 79 | 349 | 5.0 | 11.0 | 0.00 | 0.00 | 0.00 | 61 | 1019.6 |
| 20260901183217 | 79 | 15 | 4.0 | 11.0 | 0.00 | 0.00 | 0.00 | 61 | 1019.6 |
| 20260901183127 | 79 | 348 | 6.0 | 11.0 | 0.00 | 0.00 | 0.00 | 61 | 1019.4 |
| 20260901183038 | 79 | 338 | 6.0 | 11.0 | 0.00 | 0.00 | 0.00 | 61 | 1019.5 |
| 20260901182210 | 79 | 349 | 5.0 | 13.0 | 0.00 | 0.00 | 0.00 | 60 | 1019.5 |
| 20260901182035 | 79 | 304 | 6.0 | 13.0 | 0.00 | 0.00 | 0.00 | 60 | 1019.4 |
| 20260901181939 | 79 | 346 | 6.0 | 13.0 | 0.00 | 0.00 | 0.00 | 60 | 1019.4 |
| 20260901181847 | 79 | 347 | 7.0 | 13.0 | 0.00 | 0.00 | 0.00 | 60 | 1019.5 |
| 20260901181707 | 79 | 352 | 5.0 | 13.0 | 0.00 | 0.00 | 0.00 | 60 | 1019.5 |
| 20260901181523 | 79 | 304 | 5.0 | 10.0 | 0.00 | 0.00 | 0.00 | 61 | 1019.4 |
| 20260901181341 | 79 | 331 | 2.0 | 10.0 | 0.00 | 0.00 | 0.00 | 61 | 1019.4 |
| 20260901181211 | 79 | 328 | 2.0 | 10.0 | 0.00 | 0.00 | 0.00 | 62 | 1019.4 |
| 20260901180819 | 79 | 319 | 5.0 | 10.0 | 0.00 | 0.00 | 0.00 | 61 | 1019.4 |
| 20260901180640 | 79 | 350 | 2.0 | 9.0 | 0.00 | 0.00 | 0.00 | 62 | 1019.3 |
| 20260901180454 | 79 | 346 | 4.0 | 9.0 | 0.00 | 0.00 | 0.00 | 62 | 1019.4 |
| 20260901180322 | 79 | 349 | 5.0 | 9.0 | 0.00 | 0.00 | 0.00 | 62 | 1019.4 |
| 20260901180141 | 79 | 346 | 5.0 | 9.0 | 0.00 | 0.00 | 0.00 | 62 | 1019.4 |
| 20260901180045 | 79 | 339 | 5.0 | 9.0 | 0.00 | 0.00 | 0.00 | 62 | 1019.3 |
| 20260901175959 | 79 | 345 | 4.0 | 9.0 | 0.00 | 0.00 | 0.00 | 61 | 1019.3 |
| 20260901175815 | 79 | 348 | 4.0 | 8.0 | 0.00 | 0.00 | 0.00 | 62 | 1019.3 |
| 20260901175549 | 79 | 343 | 3.0 | 8.0 | 0.00 | 0.00 | 0.00 | 61 | 1019.3 |
| 20260901174755 | 79 | 338 | 3.0 | 6.0 | 0.00 | 0.00 | 0.00 | 61 | 1019.3 |
| 20260901174627 | 79 | 337 | 3.0 | 12.0 | 0.00 | 0.00 | 0.00 | 60 | 1019.3 |
| 20260901174122 | 79 | 319 | 3.0 | 12.0 | 0.00 | 0.00 | 0.00 | 60 | 1019.4 |
| 20260901174030 | 80 | 319 | 3.0 | 12.0 | 0.00 | 0.00 | 0.00 | 61 | 1019.3 |
| 20260901173942 | 79 | 333 | 5.0 | 12.0 | 0.00 | 0.00 | 0.00 | 60 | 1019.4 |
| 20260901173759 | 80 | 315 | 4.0 | 11.0 | 0.00 | 0.00 | 0.00 | 60 | 1019.3 |
| 20260901173631 | 80 | 335 | 5.0 | 11.0 | 0.00 | 0.00 | 0.00 | 60 | 1019.2 |
| 20260901173230 | 80 | 336 | 4.0 | 9.0 | 0.00 | 0.00 | 0.00 | 60 | 1019.2 |
| 20260901173050 | 80 | 332 | 3.0 | 9.0 | 0.00 | 0.00 | 0.00 | 60 | 1019.2 |
| 20260901172949 | 80 | 311 | 3.0 | 7.0 | 0.00 | 0.00 | 0.00 | 60 | 1019.2 |
| 20260901172916 | 80 | 331 | 3.0 | 7.0 | 0.00 | 0.00 | 0.00 | 60 | 1019.2 |
| 20260901172735 | 80 | 311 | 3.0 | 7.0 | 0.00 | 0.00 | 0.00 | 59 | 1019.1 |
| 20260901172552 | 80 | 297 | 3.0 | 7.0 | 0.00 | 0.00 | 0.00 | 59 | 1019.2 |
| 20260901172408 | 80 | 316 | 2.0 | 5.0 | 0.00 | 0.00 | 0.00 | 59 | 1019.2 |
| 20260901172247 | 80 | 314 | 2.0 | 5.0 | 0.00 | 0.00 | 0.00 | 59 | 1019.2 |
| 20260901171852 | 80 | 343 | 3.0 | 6.0 | 0.00 | 0.00 | 0.00 | 59 | 1019.2 |
| 20260901171450 | 81 | 332 | 3.0 | 8.0 | 0.00 | 0.00 | 0.00 | 58 | 1019.2 |
| 20260901171103 | 81 | 347 | 3.0 | 9.0 | 0.00 | 0.00 | 0.00 | 58 | 1019.2 |
| 20260901171006 | 81 | 323 | 4.0 | 9.0 | 0.00 | 0.00 | 0.00 | 58 | 1019.2 |
| 20260901170824 | 81 | 319 | 3.0 | 9.0 | 0.00 | 0.00 | 0.00 | 57 | 1019.2 |
| 20260901170305 | 81 | 350 | 4.0 | 9.0 | 0.00 | 0.00 | 0.00 | 57 | 1019.3 |
| 20260901170110 | 81 | 315 | 2.0 | 9.0 | 0.00 | 0.00 | 0.00 | 57 | 1019.2 |
| 20260901170036 | 81 | 313 | 3.0 | 10.0 | 0.00 | 0.00 | 0.00 | 57 | 1019.3 |
| 20260901165928 | 81 | 322 | 5.0 | 10.0 | 0.00 | 0.00 | 0.00 | 57 | 1019.3 |
| 20260901165756 | 82 | 350 | 2.0 | 10.0 | 0.00 | 0.00 | 0.00 | 56 | 1019.3 |
| 20260901165627 | 82 | 340 | 4.0 | 10.0 | 0.00 | 0.00 | 0.00 | 57 | 1019.3 |
| 20260901165607 | 82 | 340 | 4.0 | 10.0 | 0.00 | 0.00 | 0.00 | 56 | 1019.3 |
| 20260901165424 | 82 | 303 | 6.0 | 10.0 | 0.00 | 0.00 | 0.00 | 56 | 1019.3 |
| 20260901165036 | 82 | 352 | 4.0 | 9.0 | 0.00 | 0.00 | 0.00 | 56 | 1019.2 |
| 20260901164923 | 82 | 303 | 4.0 | 9.0 | 0.00 | 0.00 | 0.00 | 56 | 1019.3 |
| 20260901164746 | 82 | 347 | 2.0 | 9.0 | 0.00 | 0.00 | 0.00 | 56 | 1019.3 |
| 20260901164618 | 82 | 321 | 4.0 | 9.0 | 0.00 | 0.00 | 0.00 | 56 | 1019.3 |
| 20260901164556 | 82 | 291 | 4.0 | 9.0 | 0.00 | 0.00 | 0.00 | 56 | 1019.3 |
| 20260901164140 | 83 | 348 | 3.0 | 7.0 | 0.00 | 0.00 | 0.00 | 55 | 1019.3 |
| 20260901163757 | 83 | 344 | 2.0 | 7.0 | 0.00 | 0.00 | 0.00 | 55 | 1019.2 |
| 20260901163621 | 83 | 327 | 3.0 | 7.0 | 0.00 | 0.00 | 0.00 | 55 | 1019.2 |
| 20260901163513 | 83 | 340 | 3.0 | 7.0 | 0.00 | 0.00 | 0.00 | 55 | 1019.2 |
| 20260901163439 | 83 | 338 | 3.0 | 7.0 | 0.00 | 0.00 | 0.00 | 55 | 1019.1 |
| 20260901163302 | 83 | 348 | 3.0 | 8.0 | 0.00 | 0.00 | 0.00 | 54 | 1019.1 |
| 20260901163119 | 83 | 0 | 3.0 | 8.0 | 0.00 | 0.00 | 0.00 | 53 | 1019.1 |
| 20260901163051 | 84 | 346 | 4.0 | 8.0 | 0.00 | 0.00 | 0.00 | 52 | 1019.1 |
| 20260901162548 | 84 | 331 | 3.0 | 9.0 | 0.00 | 0.00 | 0.00 | 53 | 1019.2 |
| 20260901162204 | 84 | 40 | 4.0 | 9.0 | 0.00 | 0.00 | 0.00 | 53 | 1019.1 |
| 20260901162027 | 84 | 336 | 3.0 | 9.0 | 0.00 | 0.00 | 0.00 | 53 | 1019.2 |
| 20260901161906 | 84 | 352 | 4.0 | 9.0 | 0.00 | 0.00 | 0.00 | 55 | 1019.2 |
| 20260901161831 | 84 | 9 | 5.0 | 9.0 | 0.00 | 0.00 | 0.00 | 55 | 1019.2 |
| 20260901161722 | 84 | 10 | 5.0 | 9.0 | 0.00 | 0.00 | 0.00 | 53 | 1019.3 |
| 20260901161536 | 84 | 333 | 4.0 | 9.0 | 0.00 | 0.00 | 0.00 | 53 | 1019.3 |
| 20260901161414 | 84 | 311 | 3.0 | 9.0 | 0.00 | 0.00 | 0.00 | 54 | 1019.2 |
| 20260901161348 | 84 | 350 | 3.0 | 9.0 | 0.00 | 0.00 | 0.00 | 53 | 1019.2 |
| 20260901161216 | 84 | 329 | 4.0 | 10.0 | 0.00 | 0.00 | 0.00 | 54 | 1019.3 |
| 20260901161038 | 84 | 339 | 2.0 | 10.0 | 0.00 | 0.00 | 0.00 | 53 | 1019.3 |
| 20260901161008 | 84 | 307 | 3.0 | 10.0 | 0.00 | 0.00 | 0.00 | 53 | 1019.4 |
| 20260901160900 | 84 | 309 | 3.0 | 10.0 | 0.00 | 0.00 | 0.00 | 52 | 1019.4 |
| 20260901160719 | 84 | 308 | 3.0 | 10.0 | 0.00 | 0.00 | 0.00 | 53 | 1019.3 |
| 20260901160600 | 84 | 306 | 4.0 | 10.0 | 0.00 | 0.00 | 0.00 | 54 | 1019.4 |
| 20260901160535 | 84 | 313 | 4.0 | 10.0 | 0.00 | 0.00 | 0.00 | 54 | 1019.4 |
| 20260901160009 | 83 | 288 | 3.0 | 10.0 | 0.00 | 0.00 | 0.00 | 55 | 1019.4 |
| 20260901155939 | 83 | 319 | 4.0 | 10.0 | 0.00 | 0.00 | 0.00 | 54 | 1019.4 |
| 20260901155820 | 83 | 306 | 3.0 | 10.0 | 0.00 | 0.00 | 0.00 | 54 | 1019.4 |
| 20260901155638 | 83 | 333 | 6.0 | 10.0 | 0.00 | 0.00 | 0.00 | 54 | 1019.4 |
| 20260901155525 | 83 | 338 | 4.0 | 9.0 | 0.00 | 0.00 | 0.00 | 54 | 1019.4 |
| 20260901155454 | 83 | 346 | 4.0 | 9.0 | 0.00 | 0.00 | 0.00 | 54 | 1019.4 |
| 20260901155314 | 83 | 309 | 3.0 | 9.0 | 0.00 | 0.00 | 0.00 | 54 | 1019.4 |
| 20260901154244 | 83 | 298 | 4.0 | 9.0 | 0.00 | 0.00 | 0.00 | 54 | 1019.5 |
| 20260901154103 | 84 | 317 | 5.0 | 9.0 | 0.00 | 0.00 | 0.00 | 53 | 1019.4 |
| 20260901154046 | 84 | 330 | 4.0 | 9.0 | 0.00 | 0.00 | 0.00 | 53 | 1019.4 |
| 20260901153614 | 84 | 335 | 4.0 | 8.0 | 0.00 | 0.00 | 0.00 | 54 | 1019.6 |
| 20260901153515 | 84 | 316 | 3.0 | 9.0 | 0.00 | 0.00 | 0.00 | 54 | 1019.5 |
| 20260901153432 | 84 | 345 | 3.0 | 9.0 | 0.00 | 0.00 | 0.00 | 54 | 1019.5 |
| 20260901153258 | 84 | 286 | 4.0 | 9.0 | 0.00 | 0.00 | 0.00 | 53 | 1019.4 |
| 20260901152746 | 84 | 335 | 3.0 | 11.0 | 0.00 | 0.00 | 0.00 | 54 | 1019.5 |
| 20260901152608 | 84 | 15 | 5.0 | 11.0 | 0.00 | 0.00 | 0.00 | 53 | 1019.4 |
| 20260901152508 | 84 | 264 | 4.0 | 11.0 | 0.00 | 0.00 | 0.00 | 55 | 1019.4 |
| 20260901152031 | 84 | 11 | 4.0 | 9.0 | 0.00 | 0.00 | 0.00 | 54 | 1019.5 |
| 20260901151845 | 84 | 334 | 4.0 | 9.0 | 0.00 | 0.00 | 0.00 | 53 | 1019.4 |
| 20260901151707 | 84 | 291 | 3.0 | 9.0 | 0.00 | 0.00 | 0.00 | 55 | 1019.5 |
| 20260901151532 | 84 | 336 | 4.0 | 9.0 | 0.00 | 0.00 | 0.00 | 54 | 1019.5 |
| 20260901151436 | 84 | 292 | 5.0 | 9.0 | 0.00 | 0.00 | 0.00 | 54 | 1019.4 |
| 20260901151346 | 84 | 5 | 3.0 | 9.0 | 0.00 | 0.00 | 0.00 | 54 | 1019.5 |
| 20260901151203 | 83 | 336 | 3.0 | 6.0 | 0.00 | 0.00 | 0.00 | 54 | 1019.4 |
| 20260901151022 | 83 | 315 | 4.0 | 6.0 | 0.00 | 0.00 | 0.00 | 54 | 1019.5 |
| 20260901151014 | 83 | 315 | 4.0 | 6.0 | 0.00 | 0.00 | 0.00 | 54 | 1019.5 |
| 20260901150845 | 84 | 327 | 3.0 | 6.0 | 0.00 | 0.00 | 0.00 | 53 | 1019.6 |
| 20260901150706 | 84 | 319 | 3.0 | 8.0 | 0.00 | 0.00 | 0.00 | 54 | 1019.5 |
| 20260901150605 | 84 | 5 | 2.0 | 8.0 | 0.00 | 0.00 | 0.00 | 53 | 1019.6 |
| 20260901150212 | 83 | 296 | 3.0 | 11.0 | 0.00 | 0.00 | 0.00 | 53 | 1019.5 |
| 20260901150046 | 84 | 15 | 4.0 | 11.0 | 0.00 | 0.00 | 0.00 | 53 | 1019.6 |
| 20260901150029 | 84 | 15 | 4.0 | 11.0 | 0.00 | 0.00 | 0.00 | 53 | 1019.6 |
| 20260901145859 | 84 | 31 | 5.0 | 11.0 | 0.00 | 0.00 | 0.00 | 53 | 1019.6 |
| 20260901145719 | 84 | 352 | 5.0 | 11.0 | 0.00 | 0.00 | 0.00 | 53 | 1019.5 |
| 20260901145413 | 84 | 90 | 4.0 | 9.0 | 0.00 | 0.00 | 0.00 | 54 | 1019.5 |
| 20260901145226 | 83 | 32 | 3.0 | 7.0 | 0.00 | 0.00 | 0.00 | 54 | 1019.5 |
| 20260901145047 | 83 | 70 | 2.0 | 7.0 | 0.00 | 0.00 | 0.00 | 55 | 1019.6 |
| 20260901145030 | 83 | 83 | 2.0 | 7.0 | 0.00 | 0.00 | 0.00 | 55 | 1019.6 |
| 20260901144905 | 83 | 286 | 3.0 | 8.0 | 0.00 | 0.00 | 0.00 | 53 | 1019.6 |
| 20260901144132 | 84 | 352 | 2.0 | 8.0 | 0.00 | 0.00 | 0.00 | 53 | 1019.6 |
| 20260901143520 | 84 | 318 | 3.0 | 10.0 | 0.00 | 0.00 | 0.00 | 53 | 1019.6 |
| 20260901141641 | 82 | 40 | 1.0 | 6.0 | 0.00 | 0.00 | 0.00 | 57 | 1019.7 |
| 20260901141539 | 82 | 43 | 0.0 | 6.0 | 0.00 | 0.00 | 0.00 | 55 | 1019.8 |
| 20260901141517 | 82 | 43 | 0.0 | 7.0 | 0.00 | 0.00 | 0.00 | 56 | 1019.8 |
| 20260901141352 | 82 | 81 | 2.0 | 8.0 | 0.00 | 0.00 | 0.00 | 55 | 1019.7 |
| 20260901141046 | 82 | 78 | 4.0 | 8.0 | 0.00 | 0.00 | 0.00 | 55 | 1019.9 |
| 20260901140938 | 82 | 40 | 3.0 | 8.0 | 0.00 | 0.00 | 0.00 | 56 | 1019.9 |
| 20260901140756 | 82 | 62 | 5.0 | 8.0 | 0.00 | 0.00 | 0.00 | 56 | 1019.8 |
| 20260901140518 | 82 | 80 | 4.0 | 8.0 | 0.00 | 0.00 | 0.00 | 55 | 1019.9 |
| 20260901140328 | 82 | 101 | 2.0 | 7.0 | 0.00 | 0.00 | 0.00 | 55 | 1019.9 |
| 20260901140147 | 82 | 0 | 1.0 | 10.0 | 0.00 | 0.00 | 0.00 | 56 | 1019.9 |
| 20260901135828 | 82 | 40 | 2.0 | 10.0 | 0.00 | 0.00 | 0.00 | 55 | 1019.9 |
| 20260901135635 | 82 | 83 | 2.0 | 10.0 | 0.00 | 0.00 | 0.00 | 56 | 1020.0 |
| 20260901135525 | 82 | 346 | 2.0 | 10.0 | 0.00 | 0.00 | 0.00 | 56 | 1019.9 |
| 20260901135503 | 82 | 346 | 1.0 | 10.0 | 0.00 | 0.00 | 0.00 | 56 | 1019.9 |
| 20260901135311 | 82 | 70 | 5.0 | 10.0 | 0.00 | 0.00 | 0.00 | 55 | 1020.0 |
| 20260901135136 | 81 | 105 | 3.0 | 8.0 | 0.00 | 0.00 | 0.00 | 56 | 1019.9 |
| 20260901135057 | 81 | 60 | 3.0 | 8.0 | 0.00 | 0.00 | 0.00 | 56 | 1019.9 |
| 20260901134945 | 81 | 76 | 1.0 | 8.0 | 0.00 | 0.00 | 0.00 | 56 | 1020.0 |
| 20260901134500 | 81 | 74 | 4.0 | 8.0 | 0.00 | 0.00 | 0.00 | 55 | 1020.0 |
| 20260901134435 | 81 | 83 | 5.0 | 8.0 | 0.00 | 0.00 | 0.00 | 55 | 1020.0 |
| 20260901134255 | 81 | 63 | 2.0 | 9.0 | 0.00 | 0.00 | 0.00 | 56 | 1020.0 |
| 20260901134116 | 81 | 131 | 3.0 | 9.0 | 0.00 | 0.00 | 0.00 | 56 | 1019.9 |
| 20260901134046 | 81 | 119 | 3.0 | 9.0 | 0.00 | 0.00 | 0.00 | 56 | 1020.0 |
| 20260901133929 | 81 | 151 | 3.0 | 9.0 | 0.00 | 0.00 | 0.00 | 56 | 1020.0 |
| 20260901133746 | 81 | 96 | 6.0 | 9.0 | 0.00 | 0.00 | 0.00 | 55 | 1020.0 |
| 20260901133431 | 82 | 47 | 7.0 | 9.0 | 0.00 | 0.00 | 0.00 | 55 | 1019.9 |
| 20260901133246 | 82 | 76 | 3.0 | 9.0 | 0.00 | 0.00 | 0.00 | 55 | 1020.0 |
| 20260901133107 | 82 | 19 | 2.0 | 7.0 | 0.00 | 0.00 | 0.00 | 55 | 1020.0 |
| 20260901133037 | 82 | 44 | 2.0 | 7.0 | 0.00 | 0.00 | 0.00 | 56 | 1020.1 |
| 20260901132929 | 82 | 57 | 2.0 | 5.0 | 0.00 | 0.00 | 0.00 | 56 | 1020.0 |
| 20260901132741 | 81 | 123 | 0.0 | 5.0 | 0.00 | 0.00 | 0.00 | 56 | 1020.1 |
| 20260901132629 | 81 | 0 | 0.0 | 8.0 | 0.00 | 0.00 | 0.00 | 57 | 1020.1 |
| 20260901132609 | 81 | 0 | 1.0 | 8.0 | 0.00 | 0.00 | 0.00 | 57 | 1020.1 |
| 20260901131913 | 81 | 44 | 4.0 | 9.0 | 0.00 | 0.00 | 0.00 | 56 | 1020.1 |
| 20260901131729 | 81 | 54 | 3.0 | 9.0 | 0.00 | 0.00 | 0.00 | 56 | 1020.2 |
| 20260901131616 | 81 | 351 | 3.0 | 9.0 | 0.00 | 0.00 | 0.00 | 56 | 1020.1 |
| 20260901131223 | 81 | 100 | 1.0 | 7.0 | 0.00 | 0.00 | 0.00 | 56 | 1020.2 |
| 20260901131043 | 81 | 28 | 2.0 | 9.0 | 0.00 | 0.00 | 0.00 | 56 | 1020.2 |
| 20260901131012 | 81 | 123 | 2.0 | 9.0 | 0.00 | 0.00 | 0.00 | 56 | 1020.2 |
| 20260901130917 | 81 | 123 | 2.0 | 9.0 | 0.00 | 0.00 | 0.00 | 55 | 1020.2 |
| 20260901130740 | 81 | 164 | 3.0 | 9.0 | 0.00 | 0.00 | 0.00 | 56 | 1020.3 |
| 20260901130410 | 81 | 21 | 4.0 | 11.0 | 0.00 | 0.00 | 0.00 | 57 | 1020.3 |
| 20260901130219 | 81 | 30 | 6.0 | 11.0 | 0.00 | 0.00 | 0.00 | 56 | 1020.3 |
| 20260901130038 | 81 | 119 | 5.0 | 11.0 | 0.00 | 0.00 | 0.00 | 57 | 1020.3 |
| 20260901130004 | 81 | 94 | 5.0 | 11.0 | 0.00 | 0.00 | 0.00 | 56 | 1020.2 |
| 20260901125851 | 81 | 67 | 6.0 | 11.0 | 0.00 | 0.00 | 0.00 | 57 | 1020.3 |
| 20260901125711 | 81 | 51 | 5.0 | 11.0 | 0.00 | 0.00 | 0.00 | 56 | 1020.2 |
| 20260901125550 | 81 | 51 | 4.0 | 8.0 | 0.00 | 0.00 | 0.00 | 57 | 1020.3 |
| 20260901125524 | 81 | 74 | 3.0 | 8.0 | 0.00 | 0.00 | 0.00 | 57 | 1020.3 |
| 20260901124954 | 81 | 128 | 3.0 | 8.0 | 0.00 | 0.00 | 0.00 | 56 | 1020.3 |
| 20260901124919 | 81 | 114 | 3.0 | 8.0 | 0.00 | 0.00 | 0.00 | 56 | 1020.3 |
| 20260901124813 | 81 | 83 | 3.0 | 8.0 | 0.00 | 0.00 | 0.00 | 58 | 1020.3 |
| 20260901124623 | 81 | 68 | 5.0 | 8.0 | 0.00 | 0.00 | 0.00 | 58 | 1020.3 |
| 20260901124458 | 80 | 9 | 3.0 | 8.0 | 0.00 | 0.00 | 0.00 | 58 | 1020.3 |
| 20260901124441 | 80 | 36 | 1.0 | 8.0 | 0.00 | 0.00 | 0.00 | 58 | 1020.3 |
| 20260901124250 | 80 | 196 | 2.0 | 10.0 | 0.00 | 0.00 | 0.00 | 57 | 1020.4 |
| 20260901123805 | 80 | 19 | 3.0 | 14.0 | 0.00 | 0.00 | 0.00 | 59 | 1020.5 |
| 20260901123625 | 80 | 98 | 3.0 | 14.0 | 0.00 | 0.00 | 0.00 | 59 | 1020.3 |
| 20260901123449 | 80 | 51 | 4.0 | 14.0 | 0.00 | 0.00 | 0.00 | 57 | 1020.4 |
| 20260901123440 | 80 | 51 | 8.0 | 14.0 | 0.00 | 0.00 | 0.00 | 57 | 1020.4 |
| 20260901122951 | 80 | 59 | 4.0 | 11.0 | 0.00 | 0.00 | 0.00 | 58 | 1020.4 |
| 20260901122859 | 80 | 352 | 4.0 | 11.0 | 0.00 | 0.00 | 0.00 | 59 | 1020.4 |
| 20260901122759 | 80 | 57 | 2.0 | 11.0 | 0.00 | 0.00 | 0.00 | 58 | 1020.5 |
| 20260901122624 | 80 | 28 | 3.0 | 11.0 | 0.00 | 0.00 | 0.00 | 59 | 1020.5 |
| 20260901122435 | 79 | 46 | 4.0 | 11.0 | 0.00 | 0.00 | 0.00 | 58 | 1020.5 |
| 20260901122252 | 79 | 78 | 6.0 | 11.0 | 0.00 | 0.00 | 0.00 | 59 | 1020.5 |
| 20260901121849 | 79 | 113 | 6.0 | 11.0 | 0.00 | 0.00 | 0.00 | 58 | 1020.5 |
| 20260901121655 | 79 | 77 | 7.0 | 11.0 | 0.00 | 0.00 | 0.00 | 58 | 1020.5 |
| 20260901121323 | 79 | 41 | 4.0 | 10.0 | 0.00 | 0.00 | 0.00 | 59 | 1020.6 |
| 20260901121147 | 79 | 55 | 5.0 | 11.0 | 0.00 | 0.00 | 0.00 | 58 | 1020.6 |
| 20260901121007 | 79 | 67 | 2.0 | 11.0 | 0.00 | 0.00 | 0.00 | 60 | 1020.6 |
| 20260901120904 | 79 | 78 | 2.0 | 11.0 | 0.00 | 0.00 | 0.00 | 60 | 1020.5 |
| 20260901120809 | 78 | 77 | 2.0 | 11.0 | 0.00 | 0.00 | 0.00 | 60 | 1020.6 |
| 20260901120631 | 78 | 102 | 5.0 | 11.0 | 0.00 | 0.00 | 0.00 | 59 | 1020.5 |
| 20260901120447 | 78 | 85 | 7.0 | 11.0 | 0.00 | 0.00 | 0.00 | 59 | 1020.7 |
| 20260901120443 | 78 | 90 | 7.0 | 11.0 | 0.00 | 0.00 | 0.00 | 59 | 1020.7 |
| 20260901120020 | 78 | 65 | 4.0 | 11.0 | 0.00 | 0.00 | 0.00 | 60 | 1020.7 |
| 20260901115559 | 78 | 159 | 5.0 | 11.0 | 0.00 | 0.00 | 0.00 | 59 | 1020.7 |
| 20260901115416 | 78 | 39 | 8.0 | 11.0 | 0.00 | 0.00 | 0.00 | 59 | 1020.7 |
| 20260901115412 | 78 | 38 | 8.0 | 11.0 | 0.00 | 0.00 | 0.00 | 59 | 1020.7 |
| 20260901115214 | 78 | 81 | 3.0 | 12.0 | 0.00 | 0.00 | 0.00 | 59 | 1020.8 |
| 20260901114825 | 78 | 55 | 3.0 | 12.0 | 0.00 | 0.00 | 0.00 | 61 | 1020.7 |
| 20260901114721 | 78 | 52 | 5.0 | 12.0 | 0.00 | 0.00 | 0.00 | 60 | 1020.7 |
| 20260901114548 | 78 | 49 | 5.0 | 12.0 | 0.00 | 0.00 | 0.00 | 61 | 1020.8 |
| 20260901114412 | 78 | 49 | 6.0 | 12.0 | 0.00 | 0.00 | 0.00 | 61 | 1020.7 |
| 20260901114355 | 78 | 38 | 6.0 | 12.0 | 0.00 | 0.00 | 0.00 | 61 | 1020.7 |
| 20260901114201 | 78 | 84 | 6.0 | 12.0 | 0.00 | 0.00 | 0.00 | 61 | 1020.8 |
| 20260901114017 | 77 | 48 | 4.0 | 12.0 | 0.00 | 0.00 | 0.00 | 62 | 1020.8 |
| 20260901113939 | 77 | 57 | 4.0 | 12.0 | 0.00 | 0.00 | 0.00 | 62 | 1020.8 |
| 20260901113451 | 77 | 80 | 4.0 | 12.0 | 0.00 | 0.00 | 0.00 | 62 | 1020.8 |
| 20260901113324 | 77 | 108 | 7.0 | 12.0 | 0.00 | 0.00 | 0.00 | 61 | 1020.8 |
| 20260901113259 | 77 | 71 | 7.0 | 12.0 | 0.00 | 0.00 | 0.00 | 62 | 1020.9 |
| 20260901113118 | 77 | 39 | 4.0 | 11.0 | 0.00 | 0.00 | 0.00 | 63 | 1020.8 |
| 20260901112657 | 76 | 122 | 7.0 | 12.0 | 0.00 | 0.00 | 0.00 | 62 | 1020.9 |
| 20260901112545 | 76 | 102 | 8.0 | 12.0 | 0.00 | 0.00 | 0.00 | 63 | 1020.8 |
| 20260901112402 | 76 | 69 | 4.0 | 12.0 | 0.00 | 0.00 | 0.00 | 63 | 1020.9 |
| 20260901112242 | 76 | 136 | 7.0 | 12.0 | 0.00 | 0.00 | 0.00 | 63 | 1020.9 |
| 20260901112211 | 76 | 92 | 7.0 | 12.0 | 0.00 | 0.00 | 0.00 | 63 | 1020.8 |
| 20260901112031 | 76 | 55 | 6.0 | 12.0 | 0.00 | 0.00 | 0.00 | 64 | 1021.0 |
| 20260901111851 | 76 | 46 | 7.0 | 11.0 | 0.00 | 0.00 | 0.00 | 64 | 1020.9 |
| 20260901111822 | 76 | 65 | 7.0 | 11.0 | 0.00 | 0.00 | 0.00 | 64 | 1020.9 |
| 20260901111704 | 76 | 76 | 7.0 | 11.0 | 0.00 | 0.00 | 0.00 | 64 | 1021.0 |
| 20260901111526 | 76 | 83 | 4.0 | 8.0 | 0.00 | 0.00 | 0.00 | 65 | 1020.9 |
| 20260901111405 | 76 | 155 | 5.0 | 8.0 | 0.00 | 0.00 | 0.00 | 64 | 1021.0 |
| 20260901111339 | 76 | 65 | 5.0 | 8.0 | 0.00 | 0.00 | 0.00 | 64 | 1021.0 |
| 20260901111156 | 76 | 69 | 3.0 | 9.0 | 0.00 | 0.00 | 0.00 | 64 | 1021.1 |
| 20260901110857 | 76 | 53 | 4.0 | 9.0 | 0.00 | 0.00 | 0.00 | 64 | 1021.1 |
| 20260901110729 | 76 | 48 | 4.0 | 9.0 | 0.00 | 0.00 | 0.00 | 65 | 1021.2 |
| 20260901110550 | 76 | 47 | 6.0 | 9.0 | 0.00 | 0.00 | 0.00 | 64 | 1021.3 |
| 20260901105848 | 75 | 68 | 4.0 | 10.0 | 0.00 | 0.00 | 0.00 | 66 | 1021.3 |
| 20260901105150 | 75 | 115 | 4.0 | 8.0 | 0.00 | 0.00 | 0.00 | 66 | 1021.3 |
| 20260901105005 | 75 | 81 | 4.0 | 7.0 | 0.00 | 0.00 | 0.00 | 67 | 1021.3 |
| 20260901104921 | 75 | 52 | 4.0 | 7.0 | 0.00 | 0.00 | 0.00 | 67 | 1021.3 |
| 20260901104813 | 74 | 46 | 4.0 | 7.0 | 0.00 | 0.00 | 0.00 | 68 | 1021.3 |
| 20260901104636 | 74 | 50 | 3.0 | 9.0 | 0.00 | 0.00 | 0.00 | 67 | 1021.4 |
| 20260901104354 | 74 | 45 | 4.0 | 9.0 | 0.00 | 0.00 | 0.00 | 67 | 1021.5 |
| 20260901104214 | 74 | 50 | 3.0 | 9.0 | 0.00 | 0.00 | 0.00 | 67 | 1021.5 |
| 20260901104033 | 74 | 54 | 5.0 | 9.0 | 0.00 | 0.00 | 0.00 | 67 | 1021.5 |
| 20260901103955 | 75 | 71 | 6.0 | 9.0 | 0.00 | 0.00 | 0.00 | 67 | 1021.5 |
| 20260901103509 | 75 | 90 | 2.0 | 8.0 | 0.00 | 0.00 | 0.00 | 68 | 1021.5 |
| 20260901103456 | 75 | 44 | 2.0 | 8.0 | 0.00 | 0.00 | 0.00 | 68 | 1021.5 |
| 20260901102817 | 74 | 48 | 2.0 | 7.0 | 0.00 | 0.00 | 0.00 | 70 | 1021.5 |
| 20260901102645 | 74 | 55 | 5.0 | 9.0 | 0.00 | 0.00 | 0.00 | 69 | 1021.5 |
| 20260901102231 | 74 | 78 | 3.0 | 9.0 | 0.00 | 0.00 | 0.00 | 70 | 1021.5 |
| 20260901101837 | 74 | 82 | 4.0 | 9.0 | 0.00 | 0.00 | 0.00 | 71 | 1021.5 |
| 20260901101741 | 73 | 78 | 5.0 | 9.0 | 0.00 | 0.00 | 0.00 | 70 | 1021.4 |
| 20260901101558 | 73 | 59 | 5.0 | 10.0 | 0.00 | 0.00 | 0.00 | 71 | 1021.5 |
| 20260901101408 | 73 | 48 | 4.0 | 10.0 | 0.00 | 0.00 | 0.00 | 71 | 1021.5 |
| 20260901101210 | 73 | 68 | 4.0 | 10.0 | 0.00 | 0.00 | 0.00 | 71 | 1021.5 |
| 20260901100744 | 73 | 117 | 4.0 | 10.0 | 0.00 | 0.00 | 0.00 | 72 | 1021.4 |
| 20260901100641 | 73 | 90 | 7.0 | 10.0 | 0.00 | 0.00 | 0.00 | 72 | 1021.5 |
| 20260901100506 | 73 | 55 | 4.0 | 8.0 | 0.00 | 0.00 | 0.00 | 73 | 1021.6 |
| 20260901100314 | 73 | 47 | 1.0 | 8.0 | 0.00 | 0.00 | 0.00 | 73 | 1021.6 |
| 20260901100114 | 72 | 81 | 4.0 | 8.0 | 0.00 | 0.00 | 0.00 | 73 | 1021.6 |
| 20260901095640 | 72 | 49 | 5.0 | 8.0 | 0.00 | 0.00 | 0.00 | 73 | 1021.6 |
| 20260901095150 | 72 | 55 | 3.0 | 8.0 | 0.00 | 0.00 | 0.00 | 75 | 1021.7 |
| 20260901095012 | 72 | 78 | 5.0 | 8.0 | 0.00 | 0.00 | 0.00 | 74 | 1021.7 |
| 20260901094958 | 72 | 82 | 5.0 | 8.0 | 0.00 | 0.00 | 0.00 | 74 | 1021.7 |
| 20260901094407 | 71 | 44 | 4.0 | 8.0 | 0.00 | 0.00 | 0.00 | 75 | 1021.6 |
| 20260901093956 | 71 | 63 | 5.0 | 8.0 | 0.00 | 0.00 | 0.00 | 75 | 1021.7 |
| 20260901093813 | 71 | 51 | 5.0 | 9.0 | 0.00 | 0.00 | 0.00 | 75 | 1021.6 |
| 20260901093642 | 71 | 67 | 4.0 | 9.0 | 0.00 | 0.00 | 0.00 | 75 | 1021.7 |
| 20260901092833 | 71 | 94 | 6.0 | 9.0 | 0.00 | 0.00 | 0.00 | 75 | 1021.6 |
| 20260901092758 | 71 | 56 | 6.0 | 9.0 | 0.00 | 0.00 | 0.00 | 75 | 1021.7 |
| 20260901092635 | 71 | 90 | 5.0 | 9.0 | 0.00 | 0.00 | 0.00 | 75 | 1021.6 |
| 20260901092450 | 71 | 121 | 3.0 | 9.0 | 0.00 | 0.00 | 0.00 | 76 | 1021.5 |
| 20260901092325 | 71 | 73 | 4.0 | 9.0 | 0.00 | 0.00 | 0.00 | 77 | 1021.7 |
| 20260901092247 | 71 | 78 | 4.0 | 9.0 | 0.00 | 0.00 | 0.00 | 78 | 1021.7 |
| 20260901091714 | 70 | 67 | 5.0 | 9.0 | 0.00 | 0.00 | 0.00 | 77 | 1021.6 |
| 20260901091644 | 70 | 107 | 5.0 | 9.0 | 0.00 | 0.00 | 0.00 | 77 | 1021.7 |
| 20260901091517 | 70 | 72 | 4.0 | 8.0 | 0.00 | 0.00 | 0.00 | 76 | 1021.8 |
| 20260901091336 | 71 | 67 | 5.0 | 8.0 | 0.00 | 0.00 | 0.00 | 76 | 1021.5 |
| 20260901091218 | 71 | 79 | 5.0 | 8.0 | 0.00 | 0.00 | 0.00 | 76 | 1021.7 |
| 20260901090752 | 71 | 63 | 4.0 | 8.0 | 0.00 | 0.00 | 0.00 | 76 | 1021.7 |
| 20260901090611 | 70 | 115 | 2.0 | 8.0 | 0.00 | 0.00 | 0.00 | 78 | 1021.8 |
| 20260901090542 | 70 | 117 | 2.0 | 8.0 | 0.00 | 0.00 | 0.00 | 78 | 1021.6 |
| 20260901090019 | 70 | 49 | 4.0 | 8.0 | 0.00 | 0.00 | 0.00 | 77 | 1021.7 |
| 20260901085904 | 70 | 85 | 5.0 | 8.0 | 0.00 | 0.00 | 0.00 | 77 | 1021.6 |
| 20260901085827 | 70 | 83 | 4.0 | 8.0 | 0.00 | 0.00 | 0.00 | 77 | 1021.7 |
| 20260901085259 | 70 | 81 | 4.0 | 7.0 | 0.00 | 0.00 | 0.00 | 79 | 1021.7 |
| 20260901085220 | 70 | 72 | 4.0 | 5.0 | 0.00 | 0.00 | 0.00 | 78 | 1021.7 |
| 20260901084330 | 69 | 51 | 2.0 | 5.0 | 0.00 | 0.00 | 0.00 | 80 | 1021.5 |
| 20260901083903 | 69 | 121 | 1.0 | 5.0 | 0.00 | 0.00 | 0.00 | 81 | 1021.6 |
| 20260901083731 | 69 | 63 | 2.0 | 5.0 | 0.00 | 0.00 | 0.00 | 81 | 1021.7 |
| 20260901083707 | 69 | 34 | 2.0 | 5.0 | 0.00 | 0.00 | 0.00 | 81 | 1021.6 |
| 20260901083553 | 69 | 34 | 2.0 | 5.0 | 0.00 | 0.00 | 0.00 | 81 | 1021.6 |
| 20260901083418 | 69 | 351 | 2.0 | 6.0 | 0.00 | 0.00 | 0.00 | 81 | 1021.6 |
| 20260901083015 | 68 | 67 | 2.0 | 6.0 | 0.00 | 0.00 | 0.00 | 81 | 1021.7 |